GFSGL_con_3kmhel_000.txt.gz
Helicity
96 142 229 295 336 390 409 367 352 324 264 149 -11 -26 -35 -4 44 91 97 102 112 117 121 111 104 99 107 119 119 112 93 87 49 36 26 15 10 32 49 27 10 24 62
82 155 246 306 382 428 414 335 311 259 179 74 11 29 75 64 61 78 94 104 108 112 113 124 105 98 94 91 98 96 87 72 53 13 12 11 1 18 20 28 34 3 17
110 183 261 307 329 374 350 284 225 145 94 76 89 93 90 85 93 98 109 120 124 112 105 102 93 95 94 95 93 83 66 65 57 36 23 18 16 6 8 10 20 22 14
96 137 249 343 355 357 311 242 196 182 128 97 86 88 88 90 95 98 107 118 120 115 114 111 112 114 108 97 84 67 39 17 -3 1 4 7 15 25 6 -20 -6 -12 20
208 247 351 404 428 372 366 391 263 143 84 72 92 93 103 109 109 157 159 151 138 121 108 97 90 83 58 66 72 33 15 15 5 -4 -6 -11 -4 7 20 -33 -53 -71 -47
252 273 317 358 365 390 275 145 -36 -30 36 103 117 110 112 119 163 169 152 129 112 104 99 89 89 51 62 47 44 50 73 73 47 38 13 4 -17 -2 38 48 31 -8 17
214 160 110 96 64 -67 -93 -73 -41 74 112 112 116 122 118 131 130 134 112 100 105 128 135 130 93 108 66 88 73 33 -41 -72 -79 -131 -40 20 35 53 51 49 61 58 56
130 70 74 95 116 113 70 81 114 129 131 124 116 115 129 117 112 92 78 95 143 130 -72 94 100 88 79 69 74 80 76 88 103 134 109 84 59 80 105 92 71 71 80
229 196 190 164 134 119 99 92 112 125 122 121 118 115 112 100 73 69 80 122 34 -39 67 73 85 78 48 24 73 110 65 87 81 56 69 88 86 53 71 109 99 84 73
225 170 113 91 95 93 106 110 116 119 113 112 126 115 84 72 57 62 95 51 -32 12 64 88 63 77 59 47 58 69 74 73 76 97 125 99 83 91 57 83 125 117 104
91 103 78 82 101 116 115 108 102 108 118 117 98 72 58 74 80 68 21 -22 -9 43 107 92 98 53 25 36 23 41 55 39 52 61 62 77 96 115 118 107 121 120 103
93 98 94 96 99 110 108 93 107 120 105 83 60 51 71 90 67 54 -0 -9 -20 -32 -7 70 53 14 -2 16 36 69 26 9 -1 -12 16 58 57 91 97 108 113 130 124
98 86 87 94 102 96 99 103 100 88 73 69 54 49 48 65 104 1 17 16 21 -22 -27 -15 3 -1 -6 -24 8 4 -16 4 60 88 101 69 87 98 97 96 112 109 111
85 81 82 92 97 103 101 98 94 79 81 73 41 37 38 48 4 14 45 11 15 -16 -27 -19 53 18 36 -12 -6 -4 -10 14 45 95 118 107 109 103 106 138 116 95 76
76 68 78 94 100 96 82 85 89 83 77 63 45 41 19 4 6 40 15 6 -14 -12 -28 -71 -46 -3 36 40 48 37 55 21 26 25 64 99 113 103 72 111 79 73 81
72 76 86 87 97 100 80 84 82 83 69 66 62 36 -29 -25 27 29 31 19 36 16 -22 -65 -49 18 48 45 41 57 44 45 35 43 51 62 64 50 44 68 58 26 82
84 90 116 113 104 94 82 80 71 56 56 59 41 2 1 7 25 31 37 36 40 21 -17 -22 -26 4 40 41 35 36 53 55 -0 -3 12 38 58 55 51 37 40 95 133
97 91 118 119 113 93 89 86 80 72 38 16 -43 -18 -0 20 32 44 60 40 20 11 1 -8 -10 -6 3 25 49 51 44 28 16 8 7 -6 -8 19 34 62 74 82 85
107 109 117 106 99 94 104 98 93 80 26 -59 -65 -50 -17 16 35 56 66 36 17 -1 -8 -7 2 -5 1 7 -12 19 56 51 46 29 20 3 -11 -39 -36 -9 55 68 72
123 111 102 82 80 104 100 99 89 65 -61 -34 -70 -55 -21 -9 11 29 40 49 33 8 -10 -9 6 12 12 16 22 42 57 69 78 87 47 6 -24 -37 -48 -57 -33 14 62
106 98 94 83 90 94 90 97 85 -2 18 -52 -82 -48 -10 -6 15 27 36 48 42 24 6 -6 1 13 19 22 23 19 16 -0 -17 67 82 59 -0 -29 -28 -17 -24 -22 1
95 82 74 83 79 86 86 94 81 60 59 -69 -66 -37 -8 -4 12 19 30 42 44 33 19 8 4 7 16 21 21 15 6 -6 -13 52 60 68 59 18 -3 -14 -4 -2 -9
86 76 71 79 80 80 88 82 71 78 58 -62 -55 -30 -22 -3 9 17 23 23 36 39 31 25 32 30 32 31 13 -3 -4 -0 2 15 24 43 57 64 50 15 4 3 -9
88 74 72 73 77 87 95 76 66 78 62 -51 -48 -33 -22 -6 12 19 16 24 27 35 42 37 23 21 27 35 36 20 5 -7 -15 -9 -3 3 12 19 34 39 28 12 1
85 70 73 71 83 96 96 86 67 73 47 -46 -49 -38 -25 -15 11 11 18 21 26 34 41 35 31 31 34 47 49 39 37 30 10 -3 -5 -0 7 8 7 15 15 13 12
83 77 76 75 93 105 109 93 76 65 24 -50 -48 -40 -23 -10 -7 18 21 24 28 29 30 24 25 33 42 40 38 42 44 41 30 28 6 1 4 5 11 16 20 19 14

GFSGL_con_3kmhel_003.txt.gz
Helicity
110 98 79 117 179 287 340 381 351 316 278 224 196 174 31 -18 13 32 44 63 89 97 100 104 109 114 131 136 145 152 149 137 124 78 97 53 51 42 47 32 23 0 60
68 50 57 99 190 329 377 331 299 258 205 135 125 119 83 66 85 91 84 100 112 99 94 109 112 108 121 127 144 141 142 133 135 89 50 85 36 31 36 25 14 2 27
61 66 73 90 210 286 355 358 292 302 233 157 132 118 115 112 110 107 112 109 109 115 118 120 111 112 108 106 104 109 114 109 115 88 53 39 59 35 28 21 7 8 -9
88 95 106 159 222 319 365 451 431 381 237 165 107 112 83 74 86 95 112 138 147 137 120 110 109 108 101 97 95 101 100 108 100 88 54 36 30 42 33 14 6 1 -8
128 137 194 231 295 398 464 441 358 239 131 36 28 74 109 102 101 151 165 148 126 109 99 94 87 75 56 85 119 109 112 108 97 79 57 46 51 60 70 56 39 19 2
179 175 175 201 193 187 151 106 82 35 0 39 86 119 111 110 116 108 104 100 92 89 84 72 83 60 69 47 58 79 112 120 109 107 80 61 30 52 64 64 67 66 40
190 152 127 86 92 97 88 74 78 88 102 116 130 135 120 125 120 126 115 108 108 102 95 98 90 93 60 80 60 33 52 22 55 123 102 87 66 73 55 59 65 75 66
240 244 202 163 133 106 111 126 121 101 100 129 131 137 134 121 115 102 88 108 113 111 111 104 78 23 52 53 63 74 80 88 109 149 144 116 104 99 98 84 79 86 98
286 246 149 116 133 115 108 91 91 115 115 117 107 114 103 89 80 74 81 105 102 103 98 52 31 44 39 15 52 76 81 86 75 51 64 71 75 60 81 113 107 106 87
100 62 68 65 89 102 94 92 103 100 97 111 101 94 81 75 66 69 76 95 91 78 10 13 29 64 26 26 62 88 69 79 75 61 109 96 60 66 45 98 107 141 121
115 99 100 99 92 105 101 107 103 107 101 90 78 64 63 63 63 52 55 82 92 -8 -14 14 76 36 5 9 21 40 37 89 74 62 57 87 100 104 99 103 97 86 119
135 99 88 91 95 100 112 111 110 98 75 64 56 53 63 62 45 50 40 58 2 -29 -12 29 1 -22 -15 -29 -28 -11 2 6 78 78 67 76 108 110 99 114 96 87 84
97 77 82 82 89 114 121 102 96 84 67 61 51 50 41 39 66 30 46 23 3 -4 -7 -2 -28 -15 -6 -1 -19 -10 -39 -36 16 49 81 95 94 103 93 97 99 92 78
85 82 75 80 100 127 114 96 90 77 72 66 60 52 35 20 17 22 -5 -20 18 -9 -17 -37 -48 -15 19 39 28 12 21 36 38 55 75 82 71 97 78 106 110 112 97
94 83 77 96 120 116 110 92 91 88 95 87 82 65 14 -13 -11 9 10 5 -6 -14 -22 -38 -43 -23 6 22 45 43 36 29 24 16 32 33 72 82 74 84 76 93 82
95 96 103 123 130 125 112 98 83 85 90 78 64 61 -8 -26 9 21 28 31 22 21 -16 -39 -39 -7 12 22 32 58 53 36 26 20 31 44 62 63 39 34 18 33 21
121 115 115 116 114 121 115 114 108 82 75 73 57 21 -16 1 7 19 29 30 30 9 -14 -14 -20 -10 13 13 27 36 57 58 43 16 -1 -2 10 52 50 34 4 9 51
155 143 130 101 102 104 115 122 120 122 86 63 58 -31 -13 3 12 21 31 24 13 8 -8 -4 5 -1 0 -1 5 27 47 61 50 38 27 27 19 1 11 4 -2 35 64
164 154 125 99 83 100 119 124 129 118 96 70 67 -57 -38 2 7 23 36 1 -2 -4 -3 4 14 17 13 11 2 13 26 22 86 42 16 4 5 -8 -21 -19 -24 9 48
123 110 108 87 90 104 113 121 119 109 82 75 23 -70 -32 -22 -12 11 14 17 12 7 4 6 17 26 25 24 28 15 0 -1 -15 -12 44 2 -9 -32 -28 -41 -47 -38 -5
104 95 92 93 100 99 111 115 117 113 99 82 -84 -68 -24 -15 0 9 17 26 23 21 18 13 18 21 23 25 20 20 11 0 -1 -25 16 58 23 8 -7 -5 -8 -27 -24
89 83 89 92 97 97 108 118 119 113 101 92 -82 -63 -19 -13 -2 8 11 20 24 23 17 12 8 10 12 12 13 15 13 7 0 -11 -30 14 39 32 18 15 9 9 3
98 91 82 85 93 98 116 121 116 110 106 94 -76 -61 -31 -18 1 4 14 18 24 26 23 15 8 21 25 23 17 4 3 12 9 -15 -25 -17 -5 10 18 19 18 20 1
101 92 73 80 86 100 119 112 103 94 110 94 -69 -62 -30 -18 2 6 6 21 27 30 30 25 9 11 22 29 28 14 -1 -2 -12 -15 -22 -25 -12 -7 3 4 10 16 19
102 78 77 85 86 102 111 111 107 91 91 89 -54 -53 -33 -17 -7 6 6 20 29 38 44 29 15 19 27 35 28 22 20 16 1 -9 -15 -14 -1 3 -7 -1 1 9 13
84 82 75 81 88 99 115 115 111 104 90 78 -13 -28 -23 -36 -26 0 7 14 25 32 35 19 10 19 25 27 22 24 26 25 16 12 -6 -4 2 5 -2 3 2 10 14

GFSGL_con_3kmhel_006.txt.gz
Helicity
101 72 72 67 67 85 125 169 223 264 271 249 204 178 144 80 84 62 47 46 49 62 73 77 71 67 85 98 113 136 158 186 189 147 143 126 111 86 97 93 94 64 53
56 52 50 55 52 95 178 250 276 333 280 275 274 153 142 140 115 88 74 73 68 69 68 82 79 87 96 101 114 125 143 158 172 148 133 127 117 116 109 111 91 75 45
53 57 36 41 81 166 273 322 350 361 345 307 193 103 67 75 94 89 82 80 74 78 92 103 97 104 102 106 109 116 127 130 151 155 130 130 123 130 108 100 85 68 77
70 92 102 144 139 198 252 320 351 364 258 169 129 105 79 74 78 77 88 104 98 90 83 81 84 89 87 90 93 98 102 115 124 148 143 135 137 134 119 95 68 78 69
108 152 163 145 128 144 158 177 172 141 109 83 81 48 84 92 89 125 137 123 109 95 81 80 74 63 48 70 105 107 112 121 126 125 122 118 122 125 123 97 86 68 59
185 175 150 114 116 119 139 146 105 123 113 88 95 103 95 106 118 130 119 96 90 88 93 76 75 50 56 43 61 73 94 123 124 139 136 130 112 134 123 97 87 82 44
227 262 278 234 160 125 117 108 98 89 90 92 100 117 120 113 119 100 86 95 98 100 90 82 69 67 56 92 71 46 52 52 88 115 121 126 114 121 118 106 82 80 71
206 124 119 118 104 84 87 99 106 108 104 99 100 110 104 90 89 79 74 96 104 96 76 65 69 73 73 43 41 67 84 102 109 132 148 140 133 133 133 114 98 89 96
103 109 104 106 117 106 87 71 80 84 87 100 96 82 76 60 54 54 65 82 81 65 49 62 79 60 27 -16 43 77 76 77 68 36 44 75 82 69 90 127 118 111 90
126 110 137 129 108 84 80 78 83 96 108 92 76 66 49 54 37 51 64 62 46 41 54 58 37 -33 -54 -3 55 80 82 77 71 94 128 74 49 76 66 95 109 105 111
136 140 126 92 76 87 84 95 102 103 89 80 71 59 56 46 44 48 57 45 37 35 46 54 15 -35 -15 -0 30 44 31 6 13 35 119 110 88 82 98 97 92 92 82
112 122 89 80 84 88 96 96 95 92 88 71 58 56 54 51 33 55 48 34 5 3 17 -4 -9 -2 -11 -14 -35 -30 -30 -47 -32 -0 69 80 97 97 96 97 90 88 84
126 101 89 80 78 83 100 92 86 91 83 72 64 59 45 39 53 38 36 5 13 4 -14 -14 22 -6 6 -20 10 6 -4 23 26 19 38 60 94 94 86 106 108 73 57
112 106 99 89 77 86 99 102 100 89 92 89 77 62 44 37 30 30 -30 -15 14 -10 -25 -15 -34 -42 -18 -2 13 32 33 28 22 27 45 77 87 86 89 108 97 82 51
130 121 113 108 96 97 108 106 107 103 116 106 100 87 45 18 2 -2 -11 -12 -11 -16 -18 -42 -48 -38 -17 11 30 29 37 43 34 34 47 42 22 37 48 62 62 81 54
142 146 131 111 96 91 103 108 103 110 108 91 72 83 66 -33 -8 2 15 20 12 3 -23 -24 -30 -21 -8 25 31 44 36 52 57 41 37 21 25 41 42 22 14 12 8
151 152 135 104 89 89 100 114 114 99 82 77 68 58 25 -32 -8 4 15 14 19 1 -20 -11 -3 5 15 32 40 23 21 48 69 49 28 39 48 30 38 33 18 -5 -7
145 138 127 110 101 90 96 112 128 133 104 82 63 53 -16 -6 2 5 14 5 4 9 -17 -6 15 21 18 16 12 8 22 11 23 63 43 34 26 21 26 21 3 -4 6
124 111 114 102 90 92 108 113 132 132 116 107 86 -36 -57 -5 -7 3 11 -21 -5 -2 1 2 15 25 32 30 24 25 13 11 2 5 60 27 29 21 28 19 2 -8 2
86 81 97 95 88 95 103 116 127 124 114 106 65 -70 -46 -39 -23 -9 -8 2 4 5 7 4 13 21 32 31 30 20 5 12 11 6 -8 33 35 34 26 18 15 -0 1
91 85 90 95 96 94 110 126 132 128 119 112 9 -49 -53 -41 -9 -7 -5 4 12 17 16 10 10 8 15 15 8 15 12 14 13 13 -3 -22 7 35 40 22 17 16 5
89 86 95 87 83 85 100 124 131 124 115 116 -0 -56 -56 -34 -18 -10 1 5 14 18 17 13 9 -1 -3 5 12 17 16 16 22 24 10 -13 -23 -8 15 28 38 40 21
91 100 90 79 87 84 96 109 123 120 104 111 58 -75 -73 -35 -19 -7 -1 13 21 29 32 32 28 27 24 15 6 -3 2 16 23 4 -12 -21 -23 -15 -9 3 21 30 37
86 97 89 83 82 85 95 100 107 109 99 94 76 -70 -82 -49 -26 -2 3 16 26 35 39 43 27 24 24 25 21 12 3 6 -0 -6 -14 -23 -14 -9 -8 -5 6 13 15
79 102 91 92 80 83 94 96 101 100 100 100 79 -14 -54 -59 -38 -9 6 12 22 39 50 45 26 21 26 35 35 26 21 18 7 -4 -8 -11 -5 2 -7 -1 4 10 17
71 86 87 85 80 87 106 107 98 98 91 90 81 46 -20 -43 -42 -25 -12 -2 5 21 40 34 25 20 24 26 29 28 25 21 11 8 -10 -9 -3 -0 -4 9 13 14 22

GFSGL_con_3kmhel_009.txt.gz
Helicity
181 169 127 72 14 41 74 112 152 214 232 277 295 289 247 169 82 49 41 40 22 23 13 11 13 9 19 30 56 74 82 99 100 79 98 99 98 102 97 89 87 92 119
182 124 60 44 74 76 115 181 219 243 284 270 248 207 93 3 18 74 69 59 49 42 42 48 48 68 74 85 92 91 102 112 125 105 104 121 106 93 102 113 116 111 115
63 37 34 67 78 108 138 197 238 260 282 257 173 77 64 99 112 108 83 49 48 42 50 56 67 80 82 85 84 87 92 98 112 126 119 114 118 108 86 82 86 89 98
90 134 157 154 97 120 123 122 136 139 147 120 81 92 119 119 98 85 78 62 59 71 72 71 72 72 69 65 71 78 86 97 104 118 123 114 119 116 110 99 95 90 86
136 149 145 101 133 94 70 91 95 101 97 88 84 63 54 57 52 72 71 85 87 80 71 66 69 72 52 59 85 80 85 93 101 113 120 116 117 127 129 103 99 91 74
117 154 152 112 70 91 89 96 108 107 106 97 97 93 92 86 123 118 114 86 69 62 61 58 62 49 50 50 54 60 75 96 99 108 103 100 86 95 94 89 74 82 66
144 109 101 96 92 106 126 106 90 80 77 76 80 87 98 104 107 90 82 67 66 62 57 50 45 54 43 53 55 52 57 54 85 88 84 82 69 76 80 89 85 77 72
99 104 117 109 106 131 102 78 69 70 68 70 86 102 91 78 78 70 64 54 60 52 39 30 36 32 44 50 52 48 50 55 66 94 89 73 56 60 84 89 81 77 76
135 146 128 122 109 94 73 71 68 64 72 91 93 79 71 65 65 56 59 56 47 35 28 27 26 33 28 23 40 29 24 47 58 47 34 35 42 52 41 71 92 97 79
205 158 116 99 85 72 76 68 71 78 90 91 80 77 68 58 46 55 61 56 37 27 17 15 19 22 9 7 -11 10 63 59 52 54 49 52 48 44 47 66 52 77 81
146 103 109 84 77 76 72 74 82 85 89 85 75 68 62 58 53 59 72 65 48 18 10 12 17 11 31 -6 -40 -60 -32 -22 -14 -22 -27 -24 29 54 49 55 58 51 53
141 127 103 91 85 77 74 76 86 87 82 73 68 60 63 44 38 49 54 52 32 5 -7 -5 -3 29 -4 -21 -29 -22 2 9 17 15 15 13 24 48 49 41 38 47 55
156 131 113 101 87 89 86 83 90 90 94 91 80 71 58 43 39 32 40 33 24 -11 -12 -2 9 -7 -19 -22 6 14 6 1 11 14 13 17 32 33 29 37 44 49 49
153 134 131 116 105 97 107 106 99 97 106 96 89 81 59 45 37 20 1 -4 6 -21 -15 -17 -19 -21 -33 -10 7 3 -3 -1 7 12 17 24 30 30 21 22 29 34 35
121 133 140 139 122 108 106 96 103 118 118 114 111 91 70 53 31 -21 -16 -10 -11 -7 -9 -16 -18 -18 -17 9 16 1 7 11 12 -0 7 16 25 32 37 31 10 20 11
100 124 140 130 124 109 92 85 104 115 123 113 93 92 73 50 -17 -0 8 12 11 8 -25 -13 -5 -8 -3 16 25 13 2 17 29 22 -0 2 16 26 43 44 32 15 -4
99 116 117 114 106 96 83 89 90 92 87 96 90 70 61 -7 -1 6 12 9 16 2 -17 -5 -1 2 6 14 14 4 -4 -6 15 23 10 8 11 8 14 29 26 21 18
94 94 87 97 94 84 81 86 104 103 83 71 70 58 35 -7 -0 6 14 -2 2 6 -8 -1 4 10 13 17 17 14 2 -12 -26 -13 15 -6 -7 -3 1 -4 -5 -1 6
64 69 74 84 86 80 75 87 109 108 94 90 77 67 -46 -17 -12 -2 6 -10 -4 3 8 5 5 9 16 17 18 13 8 -0 -10 -18 -16 11 -5 -7 -13 -6 -9 -16 -6
54 64 75 78 71 75 74 83 95 103 89 89 84 74 -50 -31 -18 -10 -12 -2 -0 1 9 10 9 9 19 24 8 -3 -7 -3 1 -2 -12 -16 -0 -10 -10 -7 5 19 7
54 62 72 70 63 69 69 71 88 97 96 86 90 86 -60 -37 -19 -7 -2 4 12 15 13 11 9 13 15 11 3 -0 1 1 3 2 -3 -15 -18 -16 -15 -6 2 13 20
57 72 78 69 64 59 64 68 75 87 94 85 81 -8 -47 -44 -31 -9 -3 10 20 25 22 21 15 12 9 12 12 5 6 10 10 9 1 -11 -13 -14 -19 -17 -8 8 15
56 65 76 74 68 60 61 71 72 71 79 83 75 15 -59 -59 -33 -9 2 12 25 35 37 36 34 25 18 11 11 10 13 16 10 13 4 -6 -5 -10 -12 -14 -11 -4 5
50 53 70 74 69 61 66 67 76 74 72 73 74 50 -24 -57 -56 -23 -9 1 18 34 48 50 40 39 29 22 18 10 3 2 -3 -4 -6 -1 4 1 -2 -3 -3 -1 4
49 55 60 64 65 63 62 68 72 77 74 69 58 57 28 -18 -41 -42 -21 -12 4 18 36 44 38 30 22 27 28 25 17 15 10 -2 -4 -0 5 8 6 6 6 8 16
50 50 49 61 69 68 69 71 73 75 70 67 62 50 43 17 -6 -20 -31 -24 -10 4 21 27 32 32 23 17 24 24 22 21 14 15 -1 4 6 10 7 13 19 16 24

GFSGL_con_3kmhel_012.txt.gz
Helicity
166 131 101 81 73 79 94 104 116 119 134 150 159 173 196 127 30 -45 -54 36 98 103 76 59 44 14 23 23 -4 10 26 34 40 49 60 66 78 86 88 89 76 67 72
102 91 114 98 92 109 120 122 121 111 102 133 176 185 103 43 20 107 103 81 78 75 60 46 48 61 75 77 77 66 72 77 75 57 64 74 67 74 70 67 79 93 100
95 117 126 113 96 115 107 84 50 80 98 108 114 78 47 63 90 104 109 105 93 85 87 82 78 86 87 87 93 95 91 88 84 82 62 71 77 77 74 69 75 84 85
84 118 149 135 130 116 113 85 74 80 72 69 80 83 94 70 60 49 45 69 85 93 94 84 87 86 80 75 77 79 72 74 76 86 82 74 84 79 79 79 79 73 75
90 107 144 129 116 117 98 83 101 111 95 87 79 73 65 65 123 102 98 91 85 74 67 66 69 90 99 72 75 68 72 81 87 94 99 88 89 88 88 89 102 116 106
112 130 124 129 133 128 93 83 100 76 73 67 68 65 70 89 179 127 105 82 67 59 61 61 65 57 42 50 59 51 72 94 103 116 119 107 78 101 112 99 79 80 73
111 129 158 156 138 117 95 91 73 68 67 65 69 86 88 83 166 102 88 71 68 56 55 51 46 48 46 51 68 61 55 57 85 75 81 81 70 75 76 87 102 94 78
111 125 158 160 130 106 95 68 63 62 62 72 86 86 76 82 128 90 70 53 64 50 43 36 30 29 41 62 51 49 48 49 51 80 69 66 71 72 81 76 69 69 73
117 127 144 133 114 91 70 63 62 68 69 85 88 81 74 78 120 93 81 77 64 51 47 38 37 15 14 33 37 35 34 36 52 61 54 37 36 33 26 63 75 79 79
115 84 103 120 103 73 64 64 68 66 82 98 90 74 83 77 97 91 85 76 56 48 34 20 11 9 17 20 26 33 17 -33 3 12 -36 20 31 27 42 41 46 56 62
124 110 98 124 99 76 73 71 78 81 84 108 84 77 62 99 71 66 69 73 61 38 18 15 8 36 56 37 15 -31 -37 -24 -25 -10 -5 -15 -18 -6 22 61 69 83 51
130 128 125 120 101 89 79 81 85 82 100 106 99 96 98 97 67 69 48 40 28 15 -4 -17 2 14 -6 -2 -25 -14 1 -3 13 26 25 24 17 10 21 38 45 43 48
162 126 98 105 96 87 90 87 87 91 121 119 112 112 89 78 68 64 28 36 2 -20 -24 -15 -31 -18 -13 -31 -34 7 13 -2 2 7 14 17 12 8 11 25 25 26 19
88 86 76 88 106 82 98 101 98 123 136 119 114 101 92 70 69 54 39 -17 -3 -20 -20 -17 -20 -11 -8 -13 -1 7 7 5 11 20 13 13 21 30 32 27 24 29 27
88 64 79 95 93 86 88 95 95 122 152 125 117 102 96 77 66 16 -17 -10 -11 -3 14 -14 -7 -1 5 19 9 -2 -1 13 23 25 16 13 14 17 31 25 24 15 13
59 64 92 88 94 87 78 71 163 153 151 134 115 117 94 74 5 -9 4 11 8 13 -13 -7 7 12 15 18 12 1 -8 -1 19 41 30 16 -2 -3 9 36 31 23 15
55 72 80 79 79 78 70 68 72 120 169 140 121 102 85 48 -17 2 11 14 4 12 -5 3 13 21 24 25 27 24 6 -3 9 16 25 16 -2 -9 -6 -0 23 31 37
45 59 56 68 69 67 64 63 73 92 94 100 134 115 88 46 -18 4 15 -2 -10 -9 -5 3 15 23 31 37 35 29 27 12 -4 -12 7 21 13 -9 -21 -30 -33 -22 -4
30 44 53 64 69 61 56 59 69 74 85 101 92 103 91 -8 -38 -12 9 -9 -8 -10 -3 1 4 11 26 41 36 27 27 21 14 6 -7 7 17 12 -7 -25 -35 -34 -20
35 56 53 63 63 61 56 58 64 67 72 90 97 83 61 -63 -44 -22 -16 -7 -3 -6 -3 -1 -0 4 20 28 24 23 20 19 22 21 10 -4 6 -0 -5 -4 -11 -16 -19
43 46 61 58 68 61 55 56 60 64 68 76 93 98 40 -79 -43 -29 -16 -6 2 5 6 3 2 6 12 15 17 16 17 16 12 15 17 12 1 -9 -10 -8 -3 -2 -0
40 51 55 66 65 59 56 53 57 64 68 68 78 93 43 -35 -56 -34 -20 -12 4 10 16 20 19 17 18 18 16 14 15 17 20 20 18 16 8 3 -7 -11 -8 -6 -1
44 52 55 67 66 57 54 59 61 61 67 73 68 67 54 -17 -37 -40 -25 -21 -4 11 22 33 40 41 32 21 16 13 16 21 20 28 30 27 15 7 -0 -1 2 -0 -1
39 47 51 68 64 55 60 62 64 72 68 62 69 63 58 36 -20 -28 -25 -24 -15 3 14 23 29 40 36 29 22 19 20 22 21 19 20 21 17 14 9 10 9 11 6
38 46 55 57 58 55 59 66 67 71 72 68 65 66 60 49 22 -4 -11 -14 -17 -10 1 6 20 29 29 28 28 32 30 32 27 23 8 13 13 13 18 17 14 17 19
39 41 45 46 49 57 59 64 64 64 72 74 71 67 63 50 42 25 8 -2 -7 -8 -4 -1 8 18 22 24 30 28 28 29 25 29 14 14 17 20 17 23 27 24 29

GFSGL_con_3kmhel_015.txt.gz
Helicity
133 173 160 152 147 131 128 160 177 137 127 130 140 115 128 116 83 54 31 48 110 134 130 103 77 64 61 49 52 43 18 4 41 55 60 63 63 67 84 110 109 76 59
151 128 106 120 127 130 230 140 193 133 71 81 130 123 91 68 71 82 93 105 101 125 117 98 81 82 91 76 73 67 78 88 90 42 80 94 99 104 92 98 104 89 84
103 100 105 100 185 178 169 164 122 107 90 82 105 35 21 36 58 85 70 61 48 45 60 77 87 95 97 108 120 107 109 109 113 108 80 80 82 89 95 101 93 85 84
98 88 105 172 188 116 126 126 132 114 105 112 90 74 75 69 66 82 120 98 89 90 92 82 78 75 74 83 79 87 100 103 84 80 74 74 65 60 75 83 88 95 92
119 106 140 170 151 160 175 155 129 118 91 78 76 76 76 74 132 179 133 89 76 69 66 59 58 72 119 81 83 77 77 82 84 80 71 71 82 85 83 80 100 109 116
102 140 114 176 208 148 149 138 114 90 86 76 72 78 91 94 201 168 112 88 62 56 57 56 57 61 53 52 35 31 63 71 82 89 78 95 122 125 126 136 134 119 106
108 108 163 218 170 154 117 122 105 90 75 73 74 91 104 78 186 135 111 83 79 65 61 62 59 62 72 48 48 99 59 49 74 63 63 63 68 71 74 75 85 97 101
94 122 176 187 137 107 124 105 103 83 84 80 88 109 96 85 167 156 120 79 92 72 64 62 63 53 61 94 79 72 49 41 40 66 68 45 55 58 66 70 79 86 92
92 137 175 176 122 147 123 115 87 86 82 91 107 113 86 96 122 124 95 96 91 67 58 53 46 34 30 39 43 27 23 28 36 34 36 29 5 21 46 67 62 72 67
110 147 229 151 176 169 134 96 85 71 87 139 133 99 90 71 88 90 77 83 71 68 52 34 23 22 25 25 22 14 9 16 22 22 5 -6 -18 -18 24 52 66 57 50
96 177 217 239 134 147 109 72 73 73 106 173 124 111 91 108 97 91 118 88 73 63 48 21 27 94 81 37 5 -8 -6 10 -16 -25 -22 -10 0 -1 -13 27 66 70 53
264 268 271 163 161 86 81 66 81 86 118 131 132 129 114 100 117 139 97 58 49 54 -20 -26 -19 -7 -31 -25 -22 -15 -11 -10 0 10 19 25 25 24 10 -3 17 53 74
100 79 64 98 61 61 83 79 91 84 124 127 128 126 109 127 101 96 72 26 -11 -30 -27 -29 8 -22 -14 -11 -33 -14 24 27 5 8 11 9 -2 -7 -1 8 13 21 38
98 96 95 60 86 69 74 81 105 110 114 115 132 126 124 110 98 92 2 -26 -5 -17 -16 7 -17 -18 6 23 5 8 12 6 15 17 12 14 16 9 13 31 18 16 19
85 80 42 47 57 78 65 109 97 123 145 130 132 123 124 113 87 -13 -14 -12 -2 0 22 -5 -16 -8 8 19 17 14 17 11 15 27 33 32 21 11 15 22 16 10 15
67 33 48 58 79 79 70 72 124 118 138 147 161 128 114 100 31 -9 8 13 4 15 9 -14 -3 7 17 23 21 20 1 3 21 40 42 34 34 32 25 13 24 11 -1
37 44 42 57 68 74 79 77 73 109 112 152 164 112 127 97 -13 -12 10 21 -5 1 -12 -7 0 8 24 27 11 18 24 12 22 22 28 30 35 41 37 -16 -23 5 10
34 38 42 56 73 79 83 75 73 77 69 94 160 157 143 100 -37 -28 -3 7 -18 -21 -18 -11 -4 5 16 33 29 27 35 19 16 10 7 23 41 45 15 17 3 -15 -14
39 40 46 55 66 70 70 73 68 69 69 77 83 115 120 65 57 -63 -20 -19 -13 -15 -16 -13 -9 -2 14 30 31 20 29 14 20 17 3 17 35 40 26 26 25 11 1
50 69 48 56 58 66 72 73 69 70 66 78 76 92 91 36 -68 -59 -29 -23 -18 -12 -9 -9 -7 0 11 17 15 18 26 16 14 25 31 23 16 16 17 18 25 25 20
56 52 64 53 60 70 64 67 72 76 69 71 81 136 96 57 -43 -58 -50 -27 -22 -11 -2 0 -2 0 8 13 16 18 24 24 26 24 30 39 27 18 11 7 11 9 16
49 46 56 61 65 68 67 64 79 79 75 73 76 103 103 67 24 -37 -44 -32 -26 -18 -5 1 9 15 20 20 21 22 23 25 30 35 40 48 33 22 23 12 13 11 6
49 48 48 51 63 70 59 68 76 86 88 78 80 73 79 79 64 15 -27 -18 -25 -22 -8 -2 7 21 26 21 18 19 24 29 30 31 34 42 37 33 25 19 17 21 21
43 40 43 50 60 61 57 65 72 83 90 82 81 87 83 76 67 56 38 5 -15 -19 -12 -10 -5 10 20 24 20 17 17 18 15 20 25 25 28 33 29 24 25 25 23
48 41 43 49 45 53 55 59 65 76 86 95 89 90 84 81 66 62 47 29 11 -14 -7 -11 -6 -2 9 17 28 27 23 21 16 19 15 20 29 32 27 25 28 23 30
59 43 41 44 40 42 54 57 65 73 78 90 93 90 90 81 73 65 56 42 25 12 9 4 1 -1 -1 6 24 27 29 28 23 25 19 22 26 27 26 26 33 26 33

GFSGL_con_3kmhel_021.txt.gz
Helicity
263 216 181 158 154 208 257 214 199 117 95 74 82 83 92 99 79 56 40 47 72 94 102 89 81 73 74 65 76 63 70 85 101 42 42 21 14 17 41 32 -34 -8 166
188 154 172 188 228 241 288 235 238 155 133 154 157 126 108 102 86 71 81 108 110 114 89 62 35 28 54 79 97 94 90 84 91 45 8 11 18 36 9 21 29 5 1
127 165 206 179 235 212 323 243 289 145 160 200 181 141 118 101 89 98 118 102 80 51 26 13 15 42 55 59 78 79 72 74 77 54 -1 -38 -50 -55 -12 -24 -14 3 9
167 184 212 177 166 291 357 360 246 190 165 204 210 166 161 119 148 127 109 91 69 42 24 25 30 46 71 75 80 82 74 78 77 42 19 -20 -31 -41 -45 -15 -4 38 72
204 190 206 174 232 273 293 309 368 151 133 263 204 191 185 166 165 163 148 95 46 35 30 19 20 50 83 113 123 116 103 96 78 50 35 10 9 22 23 16 19 40 64
161 144 146 179 158 151 172 187 228 74 152 253 181 144 201 180 188 163 128 96 81 74 68 47 59 79 110 150 145 130 126 76 48 45 35 34 31 38 40 25 -32 -24 -18
167 169 180 108 53 29 121 212 209 136 226 231 159 193 176 159 144 129 120 148 127 109 96 72 69 75 81 71 67 59 52 52 45 37 4 25 34 45 50 59 61 42 1
135 172 135 79 22 11 40 182 238 167 211 253 150 169 152 129 114 100 151 157 136 116 93 78 74 68 71 67 64 64 59 54 32 20 15 18 46 39 43 47 53 62 80
203 176 126 89 50 44 114 155 25 122 156 123 121 127 93 65 69 193 165 136 129 115 91 61 51 54 44 64 77 57 50 42 34 34 44 45 10 0 7 37 37 35 23
195 153 126 83 94 96 54 23 66 92 110 113 111 71 31 76 155 175 145 169 134 87 57 44 16 15 36 55 30 -12 -23 -12 -14 -12 -16 -4 -15 -19 -4 24 64 65 63
171 117 74 103 90 92 80 55 86 146 159 127 87 41 65 122 134 163 185 146 93 71 58 50 43 -4 11 3 -15 -40 -26 -23 -20 -21 -8 5 17 28 30 25 34 76 27
131 101 106 106 118 100 78 67 130 156 135 84 56 39 64 95 113 134 106 69 41 67 69 79 80 54 6 -6 -10 11 6 -19 12 33 41 57 60 43 28 17 42 48 61
102 110 103 89 80 67 88 94 97 96 79 50 55 66 75 83 96 71 65 30 31 61 82 56 41 -16 -9 10 33 49 16 19 2 12 16 20 33 49 40 19 11 7 26
121 93 101 104 69 55 54 66 77 68 60 60 75 84 87 90 97 94 81 71 50 61 55 67 21 7 33 44 -4 19 18 0 -5 12 33 46 35 20 34 31 29 -2 -5
114 88 89 67 60 45 58 72 46 31 56 76 89 100 110 87 92 59 -7 15 49 45 47 58 14 -1 -2 -7 4 30 43 14 35 60 43 35 31 51 54 83 40 -9 -14
106 80 73 66 60 55 49 49 57 62 55 73 96 119 91 79 38 62 20 -7 24 37 34 25 -32 -28 -22 -10 1 40 65 10 32 57 41 45 54 79 70 39 28 10 -4
89 79 61 58 59 54 39 37 40 51 39 44 87 82 82 62 49 75 32 14 17 27 -1 -9 -27 -32 -29 -11 20 42 59 25 15 29 50 90 101 73 54 29 32 20 50
87 83 95 62 53 51 53 50 60 60 63 66 61 107 111 68 60 73 63 20 -22 -5 -15 -13 -18 -23 -21 -8 10 22 15 6 12 26 50 98 146 90 52 47 46 45 68
77 103 110 79 50 54 58 59 59 65 66 74 82 129 120 87 66 65 68 54 -17 -34 -34 -18 -10 -11 -10 2 8 8 4 -4 1 18 49 73 120 108 82 54 59 63 41
68 87 105 84 62 63 62 61 62 62 66 79 80 107 114 109 76 50 62 65 44 -27 -35 -32 -15 -5 -4 8 9 10 3 7 12 19 44 63 85 86 84 51 34 25 18
88 111 88 74 77 69 72 72 66 63 71 87 93 122 130 129 99 90 73 76 67 44 -15 -25 -24 -17 -14 0 9 13 10 9 18 28 41 63 66 84 69 60 44 22 5
95 76 77 75 67 63 72 80 74 71 76 88 99 111 124 137 124 121 106 85 73 70 61 8 -18 -20 -18 -8 1 7 12 12 22 28 36 50 59 74 41 42 39 33 23
85 65 68 72 70 61 58 78 69 75 73 86 106 107 126 129 133 137 130 100 94 77 77 66 4 -11 -18 -18 -13 -5 13 21 18 16 23 38 45 45 32 33 43 42 32
103 79 65 74 78 69 70 78 76 73 76 80 93 109 117 122 124 120 125 116 118 87 89 88 44 14 -12 -13 -3 -12 -12 -2 10 17 19 22 33 28 27 33 57 51 27
117 114 104 93 82 68 61 59 64 78 88 72 75 93 107 118 120 110 113 126 123 116 84 89 70 45 8 6 17 2 7 12 12 16 24 24 27 30 38 32 36 32 33
128 133 139 121 103 74 69 61 60 74 80 77 78 75 87 95 103 105 111 129 129 130 114 98 79 61 33 56 22 20 15 16 20 26 25 19 22 26 30 35 32 22 37

GFSGL_con_3kmhel_024.txt.gz
Helicity
168 143 111 98 133 153 189 223 240 233 218 127 136 90 106 99 100 127 155 154 138 102 87 76 55 31 27 10 21 51 62 63 91 79 35 30 10 13 33 43 -11 -6 39
107 107 126 133 143 179 195 212 240 249 278 226 199 139 122 124 126 154 200 144 125 106 92 67 38 31 20 22 34 60 94 103 111 79 60 36 15 13 13 21 41 16 -0
109 138 155 197 224 191 219 214 253 216 242 235 98 114 141 147 131 183 202 155 135 97 62 43 36 38 41 48 64 75 83 98 126 105 66 34 4 -1 -18 -39 -1 19 25
195 230 210 181 134 128 193 179 198 238 266 130 116 82 135 150 145 203 190 144 101 82 65 67 62 51 54 70 85 105 114 96 95 96 69 39 -1 -20 -28 -30 -3 16 54
233 220 170 112 102 109 67 59 99 137 167 207 172 147 190 154 171 170 123 99 94 99 105 100 83 69 63 77 129 129 128 98 78 69 54 43 34 18 10 4 15 12 18
195 177 119 104 116 81 76 67 136 183 199 264 77 185 180 145 136 101 89 109 126 133 120 111 113 91 85 87 88 115 113 90 73 76 70 48 30 28 24 27 9 16 12
184 137 78 102 88 53 48 90 163 215 213 81 136 134 135 105 78 88 118 154 156 135 131 130 109 95 84 101 76 61 67 61 69 56 46 49 20 29 29 24 14 29 50
133 87 103 93 58 45 94 103 93 103 54 97 123 110 112 97 108 134 138 150 154 150 126 87 78 63 70 58 70 67 69 53 56 60 62 48 19 18 22 35 45 47 42
153 142 107 77 56 84 109 99 84 64 98 99 111 107 83 68 100 128 148 138 132 106 71 61 65 70 43 19 45 44 58 36 38 44 49 50 37 14 1 34 44 46 31
148 101 72 60 80 116 132 121 123 99 116 115 106 85 89 75 93 110 129 131 115 79 67 66 40 40 16 18 28 51 11 21 16 21 19 3 -5 -16 5 21 45 40 41
113 93 86 96 99 121 109 107 75 124 113 99 90 62 72 85 80 89 96 126 106 73 78 84 95 42 16 5 -4 18 21 -2 6 16 31 23 15 6 8 6 13 43 57
98 96 103 88 124 132 111 98 92 94 97 83 74 56 67 70 79 55 69 95 64 75 82 105 92 21 7 12 31 53 47 7 -10 9 30 33 38 34 22 17 13 22 75
119 125 109 114 130 118 99 89 85 76 66 54 62 71 71 73 69 36 41 54 45 68 74 66 43 29 29 42 7 22 27 6 1 -3 10 16 32 37 32 15 8 -2 2
156 132 105 102 96 98 99 87 62 42 40 53 69 73 86 83 71 65 69 65 34 40 46 65 67 55 60 50 48 57 32 15 21 23 28 32 29 33 41 50 23 3 -6
152 130 88 82 92 94 87 68 39 20 53 69 75 84 104 82 70 31 53 65 30 25 36 61 61 45 23 7 16 38 35 23 37 51 35 45 56 64 63 75 38 14 3
123 125 83 73 70 90 84 66 49 54 53 50 67 109 90 74 30 38 52 67 37 33 23 21 24 -12 -40 -22 4 35 25 21 24 43 47 60 83 81 54 52 33 21 21
143 112 89 82 58 76 69 58 58 65 57 58 52 76 78 66 44 54 70 59 55 32 -4 -0 -3 -13 -29 -28 -13 14 12 5 19 39 55 91 107 87 55 44 51 39 45
123 91 97 100 75 62 62 58 53 54 56 57 46 66 91 81 64 65 64 60 38 37 -13 -21 -11 -14 -18 -15 -10 -4 -0 -5 4 25 41 66 101 87 66 55 47 46 50
115 84 87 93 85 65 57 62 57 53 57 52 59 72 97 79 72 82 89 76 47 34 38 -20 -25 -19 -18 -14 -7 -0 -3 -0 4 17 32 44 70 93 79 69 69 51 32
105 72 76 89 88 77 66 73 65 61 58 60 62 80 105 125 108 94 91 94 76 47 41 37 -12 -23 -24 -16 -11 -5 -1 3 7 16 29 36 54 58 69 58 51 29 13
105 96 82 80 80 84 87 73 73 75 70 60 68 84 107 135 112 108 101 106 92 71 49 44 31 1 -31 -27 -18 -8 -9 1 6 7 16 29 36 49 55 41 33 26 15
121 103 92 83 77 77 79 69 62 75 60 63 61 73 90 126 121 109 108 109 101 93 78 68 47 38 4 -24 -22 -15 -6 -1 5 14 17 19 26 36 41 35 41 24 12
106 90 76 62 66 74 72 61 55 65 60 61 72 69 87 100 104 104 108 106 108 101 96 94 68 44 34 8 -8 -17 -17 -7 -1 7 15 21 22 25 29 24 35 25 31
102 95 95 85 72 81 76 62 53 57 61 67 71 61 68 80 96 96 94 93 103 103 109 112 91 67 49 38 23 -0 -9 -11 -8 -3 11 20 28 30 21 22 31 30 29
115 108 107 102 93 93 86 75 65 61 60 68 69 60 61 71 83 84 81 88 99 109 105 110 108 89 59 57 51 21 9 10 4 2 6 9 25 43 41 28 24 25 28
134 125 122 126 123 121 113 106 77 73 70 79 90 89 82 81 85 84 85 97 102 102 103 112 120 94 88 76 58 43 27 15 13 17 16 12 19 27 36 36 41 32 29

GFSGL_con_3kmhel_027.txt.gz
Helicity
115 112 113 110 122 142 143 159 185 217 237 263 299 276 228 185 107 88 88 87 127 153 144 135 122 108 99 89 90 94 95 98 107 88 93 78 82 50 46 43 36 24 1
111 126 131 157 164 148 164 168 173 195 248 258 287 247 101 41 94 85 88 112 153 142 131 126 109 101 100 96 99 99 106 107 121 103 96 108 88 66 36 38 47 72 62
167 165 152 158 150 138 107 116 136 169 199 246 242 154 170 192 119 151 145 163 170 132 123 115 107 109 113 102 94 98 106 101 118 124 110 113 91 77 42 31 30 52 67
147 147 157 140 115 127 146 130 107 152 219 221 203 180 275 171 159 190 171 167 132 134 132 128 138 143 128 108 94 93 95 101 96 109 103 98 91 77 58 24 32 22 32
130 144 142 125 124 139 137 111 108 131 165 160 166 145 133 98 144 124 132 122 129 135 141 150 150 139 106 123 128 118 115 99 88 89 77 80 89 86 62 50 30 19 30
132 159 121 154 149 126 90 83 69 128 167 187 102 44 139 139 114 108 104 122 132 144 141 143 149 115 109 83 69 71 86 106 84 69 59 62 71 73 65 50 38 32 8
166 167 171 143 118 102 82 88 75 92 85 80 84 134 131 124 129 143 144 135 128 135 149 148 125 120 87 97 70 54 64 49 70 60 43 44 40 66 66 58 38 38 38
205 184 133 118 111 82 76 86 87 80 80 79 109 121 126 122 138 116 134 115 104 121 121 102 94 92 94 70 77 72 55 48 70 68 56 30 31 48 64 62 41 29 30
166 131 124 133 117 99 83 101 123 114 98 100 105 119 124 110 104 100 104 94 90 101 90 84 75 77 53 33 73 90 75 44 35 18 8 20 32 44 43 58 28 28 42
138 135 141 133 111 94 83 88 110 105 119 120 118 115 122 101 84 86 88 91 96 100 86 68 55 60 41 40 52 57 63 51 20 14 6 3 7 15 17 7 13 33 58
135 138 129 127 104 100 95 122 129 148 131 116 105 102 102 91 77 81 77 80 86 105 87 68 81 39 32 35 43 58 33 6 -26 -16 -3 3 6 -3 -8 -8 7 37 44
144 159 143 126 127 140 147 154 146 129 114 91 93 81 79 76 72 72 71 53 61 107 81 73 68 38 47 46 45 22 11 6 -13 -5 -6 -1 7 12 15 12 6 14 41
188 181 153 121 135 140 133 146 147 120 93 70 77 82 76 83 89 71 57 47 52 82 71 48 41 43 54 62 27 22 32 21 9 8 12 8 12 20 24 12 3 1 6
171 166 148 132 120 120 133 141 113 78 68 66 74 78 83 85 84 89 79 61 52 55 56 45 48 47 63 66 52 44 41 27 19 17 24 29 40 42 40 34 20 14 2
147 158 153 147 115 99 105 110 89 63 72 72 80 91 98 82 78 57 77 70 52 49 64 40 27 23 23 41 55 38 37 7 18 32 29 47 59 65 52 54 30 9 12
135 149 163 148 118 97 103 100 63 58 57 51 52 108 83 70 46 54 80 75 54 50 53 52 7 6 6 -8 -1 -17 -14 -15 16 31 43 48 52 60 49 55 38 34 27
129 148 147 137 127 106 101 92 76 81 74 64 60 60 70 73 61 71 80 80 67 62 50 41 31 -9 -10 -13 -15 -10 -9 -11 1 8 17 41 55 56 57 42 50 38 30
127 141 138 127 136 117 101 91 83 82 71 69 62 60 61 75 70 80 85 95 80 65 62 46 42 7 -24 -16 -17 -15 -9 -9 -12 -3 7 18 45 55 53 52 36 33 36
131 152 139 113 119 122 110 92 80 83 69 64 66 61 67 72 70 90 112 118 102 80 73 57 44 39 6 -28 -24 -25 -20 -4 -4 -5 3 8 24 28 49 44 36 25 12
138 137 132 108 107 117 109 115 98 91 73 67 65 65 78 111 102 100 109 122 120 99 80 71 52 40 31 5 -33 -30 -26 -19 -7 2 3 8 18 16 18 33 31 17 6
157 151 138 109 106 108 102 91 85 93 82 71 64 66 76 108 98 104 102 114 118 112 99 89 69 62 51 41 22 -27 -30 -25 -19 -9 6 7 11 19 29 22 17 9 4
165 158 143 115 89 75 77 90 92 90 77 76 56 59 75 104 104 103 101 101 108 117 123 121 99 82 69 62 49 11 -26 -27 -24 -18 -8 2 12 11 21 23 26 18 14
143 148 132 109 96 84 71 80 95 91 75 63 65 65 83 87 97 97 94 88 96 100 103 133 123 90 84 74 71 66 14 -20 -21 -17 -14 -4 4 13 21 13 20 23 31
147 152 141 118 105 102 102 92 86 89 88 73 71 73 80 77 81 86 87 85 87 87 98 113 124 115 103 92 79 70 59 24 6 -9 -11 -6 2 14 18 24 29 22 28
131 150 150 140 141 135 127 120 118 113 100 100 82 88 81 64 76 84 90 95 90 91 88 102 104 108 105 104 98 82 60 41 21 5 2 -2 1 12 17 20 29 33 33
113 118 139 156 170 168 161 146 139 128 117 108 108 113 111 107 100 94 90 100 97 95 88 94 94 100 98 108 110 97 71 57 41 21 16 10 8 15 23 25 30 30 40

GFSGL_con_3kmhel_030.txt.gz
Helicity
133 147 157 142 133 153 166 177 181 182 174 181 200 224 290 254 190 178 148 141 111 124 118 144 128 126 124 127 124 129 139 156 174 129 110 78 66 73 98 94 63 35 30
157 165 156 154 172 181 170 174 168 149 137 151 181 263 216 161 155 174 203 117 170 133 126 139 125 114 137 143 150 137 132 130 143 119 91 78 78 95 103 87 66 55 69
154 148 165 164 157 157 154 143 131 130 136 148 191 196 177 157 200 222 180 133 138 118 120 122 121 139 163 168 163 159 141 116 123 122 99 103 91 98 99 97 75 64 55
124 137 140 130 120 123 124 128 124 119 130 130 158 167 149 84 118 147 124 125 118 116 117 136 154 169 176 168 158 145 123 123 107 106 105 96 92 80 88 90 80 69 60
107 134 125 113 132 135 135 126 115 126 130 139 144 124 113 118 151 133 115 109 106 103 121 135 151 150 109 108 129 136 121 125 118 102 95 88 80 73 73 75 73 69 59
109 115 126 152 153 145 125 131 123 102 93 97 121 119 126 127 131 133 124 114 114 120 116 128 146 109 89 74 66 63 74 97 95 102 96 99 71 70 60 53 65 60 51
118 156 174 164 140 120 113 123 120 94 93 109 126 142 115 97 120 109 113 113 113 102 106 117 116 89 68 100 81 57 60 40 71 72 69 71 48 44 52 36 40 53 59
145 149 159 145 123 113 120 116 112 110 107 116 132 113 102 97 107 99 96 107 102 89 95 108 114 80 87 75 106 104 82 76 74 71 83 84 55 25 17 50 41 35 33
141 143 135 135 129 132 128 110 110 121 128 139 135 123 107 96 98 91 99 97 88 80 85 115 105 70 60 43 75 82 75 71 38 17 23 24 -9 2 -0 10 15 49 51
131 131 142 157 151 135 119 101 120 130 135 151 144 121 110 99 83 79 86 99 102 95 92 96 80 65 42 55 87 83 83 49 14 4 23 30 -5 13 12 6 22 23 67
136 140 164 175 158 133 119 122 138 160 176 156 137 108 102 93 72 69 70 104 102 97 93 91 90 33 35 47 57 72 62 38 17 1 -15 -15 -7 5 13 6 19 30 27
139 142 178 187 161 147 147 155 161 150 146 135 116 90 86 81 65 64 63 72 80 108 86 85 92 21 26 37 54 26 29 37 36 17 -6 -10 -3 5 15 16 27 34 50
137 125 150 176 161 143 147 148 151 145 136 101 91 84 77 78 75 59 65 73 81 99 83 59 54 29 25 40 27 23 37 46 22 3 7 14 29 42 50 34 22 26 42
141 111 145 168 155 147 145 146 135 132 117 94 84 79 82 82 77 83 93 86 79 86 69 65 61 47 30 39 36 52 54 52 34 12 21 42 54 54 53 47 35 13 -0
151 139 145 175 169 157 141 133 131 115 112 101 90 94 100 79 81 71 83 99 89 86 76 66 52 46 26 17 19 22 41 47 48 19 25 40 44 50 48 55 40 7 13
152 151 139 156 165 160 139 119 103 93 65 66 51 103 92 85 67 52 78 92 82 92 84 69 57 41 38 6 -0 -4 -1 -9 -11 6 14 24 31 38 42 41 42 32 36
136 141 135 144 164 159 146 125 105 90 83 78 66 56 73 85 71 60 84 98 96 106 102 81 71 53 30 29 -9 -14 -14 -13 -20 -28 -16 1 22 19 23 16 31 25 26
129 131 143 150 154 141 151 129 121 120 107 86 78 78 62 57 74 65 85 121 110 114 116 104 80 59 52 23 16 -22 -24 -20 -17 -19 -25 -18 -4 4 18 18 22 25 29
131 141 162 167 155 133 135 143 124 123 120 110 81 77 70 58 71 73 102 130 123 114 112 110 105 81 63 52 16 -3 -31 -32 -24 -16 -11 -18 -11 -13 1 19 26 24 11
122 114 150 179 147 134 127 128 122 129 120 106 97 89 87 100 90 96 108 125 124 115 113 112 106 105 87 64 48 8 -16 -34 -38 -30 -18 -7 -8 -10 -5 3 6 14 22
131 120 153 177 163 142 126 121 116 115 100 103 99 83 88 101 79 86 94 114 114 108 107 114 110 110 105 94 71 52 15 -18 -31 -34 -26 -15 -3 3 6 6 6 10 18
129 122 135 179 166 139 119 109 101 101 108 108 88 84 94 104 83 90 96 98 106 111 115 121 113 117 115 113 99 81 51 7 -16 -26 -26 -21 -10 -1 11 8 13 15 26
112 117 131 154 168 150 130 118 117 112 102 102 110 97 106 99 104 97 101 93 100 103 109 131 115 94 98 103 113 111 89 47 22 14 -19 -18 -12 -1 8 12 23 26 35
125 117 126 142 161 165 157 141 137 135 128 118 114 113 116 108 107 97 97 92 102 98 117 128 123 105 98 98 102 103 104 81 56 39 22 -8 -8 3 7 14 25 25 37
114 123 125 139 139 154 170 167 164 157 156 155 145 136 120 121 116 100 93 103 104 108 100 111 113 102 96 94 98 96 100 85 67 45 39 25 -2 -0 8 7 16 26 29
105 97 100 115 140 151 154 153 166 174 178 174 169 156 134 132 137 127 120 119 111 111 105 111 106 98 98 101 99 105 104 90 76 57 51 40 24 14 13 10 18 22 29

GFSGL_con_3kmhel_033.txt.gz
Helicity
106 178 164 156 147 144 153 181 181 149 141 142 138 140 148 197 178 144 117 115 142 121 109 135 123 125 141 134 134 133 141 143 145 106 102 73 55 50 56 64 72 64 58
197 189 159 145 146 174 198 164 128 121 124 131 130 138 177 170 102 119 128 186 125 116 126 125 118 122 113 118 127 134 154 140 131 86 77 74 75 74 70 75 82 73 75
161 149 147 160 190 183 142 113 110 115 117 125 136 148 153 144 136 100 100 118 118 112 108 104 104 112 109 127 140 142 125 120 113 117 86 79 75 77 77 87 83 75 70
139 135 157 170 143 124 115 111 109 114 127 132 137 129 125 116 108 109 113 101 95 94 98 113 115 121 122 125 125 94 100 117 111 104 86 74 73 69 72 73 88 84 70
130 123 128 126 131 126 124 118 109 109 114 121 125 117 123 141 125 93 83 83 82 83 95 102 114 104 84 95 92 77 92 107 110 101 95 77 64 61 68 69 76 89 99
105 103 127 141 126 142 134 120 109 115 136 135 117 114 141 129 110 90 74 70 74 87 91 93 97 78 92 64 45 45 62 84 81 85 88 76 45 35 44 52 59 71 62
103 119 129 135 143 138 118 110 108 120 124 123 109 134 133 111 95 79 74 67 71 79 86 91 85 81 84 78 50 56 61 53 73 70 68 59 42 32 33 39 40 34 33
116 123 131 143 140 122 114 113 121 122 112 117 122 136 125 104 86 76 65 63 69 75 81 81 77 77 85 66 51 63 84 74 54 68 52 50 34 33 28 19 22 35 15
124 126 133 137 128 129 125 124 117 123 133 124 116 131 116 93 83 72 55 63 63 66 78 68 72 82 74 45 56 76 78 56 57 23 9 0 17 23 12 -16 -11 6 13
149 128 124 138 153 149 135 126 127 128 135 141 142 136 117 84 81 65 55 65 61 72 61 63 67 70 51 44 52 68 65 50 38 19 14 3 7 23 35 10 1 2 5
137 128 132 148 162 164 142 135 132 130 156 153 147 127 92 79 73 58 53 58 72 74 72 69 68 41 36 28 28 53 48 38 41 33 22 5 -1 2 4 7 12 6 3
130 136 136 134 153 148 137 130 133 144 143 137 124 103 91 78 70 60 50 52 70 81 75 79 65 30 31 30 34 27 35 45 47 31 22 12 8 14 19 19 17 15 13
128 145 148 128 125 134 134 125 127 133 136 119 104 93 81 75 71 63 54 55 73 86 89 71 51 38 34 52 28 29 38 53 45 29 18 19 31 49 68 60 47 54 57
131 152 164 129 101 117 131 130 130 130 124 107 91 82 74 65 67 67 70 73 82 82 83 82 72 52 56 59 35 23 30 33 44 32 19 22 27 30 36 50 41 11 -2
147 142 131 121 109 108 118 122 125 113 117 94 75 76 67 55 57 71 57 72 78 94 85 87 76 60 47 52 48 18 12 8 21 34 31 18 20 29 35 40 42 24 19
132 117 111 117 113 111 114 112 116 97 84 91 71 77 68 60 62 61 47 67 76 96 85 83 78 67 48 38 36 28 3 -4 -10 -2 4 -6 14 24 35 28 21 28 49
126 108 105 105 117 113 117 112 97 95 79 78 78 62 59 50 62 57 49 64 85 92 81 82 84 76 62 45 38 23 10 -10 -12 -14 -22 -22 -8 4 14 10 11 8 17
103 105 109 102 103 131 115 108 98 108 96 73 82 104 65 59 50 66 59 71 78 93 85 79 83 84 78 64 46 33 8 -12 -20 -22 -18 -18 -17 -12 -2 16 19 21 18
85 97 109 98 101 121 132 110 93 94 111 98 81 91 87 63 53 60 73 75 65 68 76 78 81 84 83 81 70 52 38 4 -20 -28 -24 -18 -14 -15 -9 -3 9 25 33
76 81 104 103 101 103 140 125 108 92 94 96 92 75 98 112 86 75 81 80 81 76 73 76 74 80 83 83 84 72 46 29 -6 -22 -29 -28 -21 -13 -12 -5 1 15 25
98 86 86 101 97 92 128 124 109 102 93 85 73 79 92 110 86 70 62 75 83 76 76 79 77 79 81 81 82 80 69 45 26 -5 -21 -24 -23 -18 -6 -3 -1 5 15
117 116 97 90 87 89 108 120 108 111 104 95 81 70 100 117 102 90 71 66 74 83 81 84 85 82 81 77 73 78 75 69 44 22 -2 -16 -21 -16 -11 -3 10 10 19
125 126 132 107 90 81 90 113 126 119 115 111 105 95 86 102 117 111 86 82 79 82 94 98 95 94 91 90 82 74 73 71 72 56 19 2 -8 -9 -8 -1 11 25 36
113 114 112 104 96 72 73 82 113 123 128 121 116 121 127 124 114 111 94 93 95 84 99 104 103 96 91 94 92 84 77 77 81 74 53 23 7 2 0 0 10 19 29
103 105 101 101 103 76 55 58 75 82 110 134 134 144 147 145 145 116 106 108 114 101 99 111 109 99 90 91 90 86 82 88 78 80 70 47 23 13 10 5 11 18 27
83 93 94 91 73 72 72 65 66 76 84 96 98 98 101 112 136 133 108 123 131 112 105 115 111 113 104 96 91 93 100 96 81 83 77 63 41 34 28 20 18 23 27

GFSGL_con_3kmhel_036.txt.gz
Helicity
123 102 148 187 159 129 127 144 155 134 116 96 96 96 106 116 136 169 105 91 102 71 82 86 87 94 109 100 104 111 117 114 123 99 80 73 75 70 70 83 79 75 67
92 99 184 154 122 133 154 148 140 104 92 86 88 94 117 152 137 125 108 122 87 77 74 84 85 90 85 90 106 109 126 125 148 86 65 84 86 71 74 79 70 68 86
102 180 160 125 129 154 154 125 103 96 87 91 104 144 128 119 123 127 109 106 89 75 73 72 74 82 89 102 110 114 144 130 102 105 95 93 85 74 71 75 67 65 63
180 148 137 137 148 150 139 114 105 102 99 118 135 130 132 123 133 137 112 81 61 62 64 69 82 91 102 111 107 104 114 92 83 101 104 95 84 63 64 68 69 56 62
144 123 134 132 131 136 129 112 117 119 118 122 145 132 129 131 150 116 75 50 48 55 59 72 85 125 95 93 107 99 89 76 83 96 106 93 84 68 56 47 48 41 53
127 117 122 122 129 136 121 115 118 109 112 119 122 142 135 155 167 113 66 46 50 55 63 65 79 95 93 71 60 72 60 63 71 92 98 94 62 50 44 23 26 23 42
118 115 122 134 127 114 111 112 103 110 126 136 124 138 134 154 149 101 62 37 55 59 62 67 78 85 78 75 69 48 39 51 87 83 72 68 47 13 16 15 22 22 23
105 115 136 125 104 110 114 109 121 127 122 132 134 128 114 161 134 85 47 33 50 56 61 67 70 70 79 80 60 47 41 48 53 72 68 46 14 -16 -20 5 13 13 17
99 115 120 110 104 111 118 140 124 135 124 151 126 127 109 116 138 71 42 47 49 45 58 64 78 58 79 41 47 39 29 36 45 47 31 25 20 28 15 -13 -8 -11 5
111 111 109 106 110 116 135 138 136 124 124 132 125 131 149 101 134 76 54 50 49 50 52 61 93 96 50 22 39 41 37 32 28 24 19 15 16 11 41 35 17 -0 -5
111 102 96 109 125 122 137 132 127 116 125 137 143 125 104 91 82 90 58 46 49 52 59 62 70 77 37 21 30 46 39 27 38 35 24 22 9 -0 -3 -4 -3 8 8
91 83 96 129 139 145 119 114 119 112 118 131 148 104 80 86 78 72 56 47 48 55 56 65 62 42 28 23 36 29 10 32 41 36 25 13 -0 2 18 36 36 20 11
73 83 102 122 127 113 106 105 115 116 125 121 112 87 70 82 67 89 58 44 40 60 60 58 51 46 38 38 67 31 15 27 30 31 21 6 -3 17 48 52 49 52 41
70 82 102 121 135 108 116 110 118 120 120 122 98 82 72 72 67 59 59 48 55 49 65 58 66 75 64 69 55 55 43 20 21 24 26 7 -4 -4 14 31 47 35 12
70 89 118 129 118 103 102 113 111 109 114 98 80 85 83 69 75 78 59 46 47 60 53 56 64 70 68 69 63 56 45 28 -0 8 13 21 -8 15 27 38 38 44 45
77 106 129 125 110 109 96 98 122 117 120 104 64 73 73 65 56 58 56 39 45 58 45 42 50 60 66 67 64 52 42 27 4 -14 -6 -6 -2 6 24 31 36 26 44
84 108 116 115 116 111 98 102 105 107 115 91 80 67 61 55 54 62 51 41 42 64 44 36 46 51 56 65 71 64 46 39 21 -11 -22 -13 -13 -2 12 13 18 24 22
76 95 85 86 100 110 99 98 119 101 97 96 100 91 82 74 67 56 53 62 47 70 54 42 40 46 50 58 66 69 65 37 24 -7 -26 -22 -16 -12 -4 3 18 13 17
94 83 89 105 109 113 105 96 119 117 97 80 71 106 103 80 81 64 43 69 43 42 45 45 49 48 49 54 64 69 68 61 33 8 -19 -28 -24 -19 -9 -3 6 23 38
101 106 106 87 89 112 116 106 102 112 99 86 78 74 63 124 121 98 92 75 58 45 45 44 48 51 53 53 58 62 64 63 61 26 5 -19 -25 -29 -19 -6 1 14 19
131 120 139 116 94 95 92 86 103 111 98 79 76 89 85 70 70 73 82 97 84 50 53 55 54 60 61 60 55 56 58 59 61 56 22 -4 -11 -28 -24 -18 -7 1 13
170 162 158 151 139 129 106 86 92 101 88 79 77 81 96 93 71 68 69 88 88 75 64 64 71 65 67 67 64 59 57 57 62 60 53 27 -5 -11 -16 -18 -10 -1 13
183 162 152 139 130 115 137 102 85 91 95 100 84 87 95 119 115 100 93 99 98 107 100 84 81 76 79 82 77 69 59 57 62 68 58 49 25 5 -4 -8 -5 -0 13
165 147 115 109 118 113 119 106 92 66 68 78 91 109 112 119 126 138 162 146 117 126 136 117 91 83 87 90 92 82 71 72 69 68 64 58 48 33 13 5 3 7 7
150 137 118 102 98 93 82 83 79 72 71 69 73 89 90 93 98 118 143 173 166 139 139 133 105 89 95 100 99 90 89 99 74 76 65 59 57 51 36 17 19 8 16
121 106 98 88 78 71 73 75 64 62 56 64 73 75 81 83 82 79 93 139 168 157 126 146 111 79 94 102 99 108 115 110 93 79 63 57 58 59 58 41 30 21 24

GFSGL_con_3kmhel_039.txt.gz
Helicity
276 243 195 58 148 145 142 157 138 138 129 120 105 105 95 99 184 162 122 101 135 166 169 139 108 97 74 79 90 101 122 108 121 115 96 90 89 82 86 92 84 80 73
289 220 62 114 130 143 146 129 150 136 115 104 102 105 142 153 123 159 167 170 153 141 109 68 85 82 85 78 95 105 124 119 137 123 104 85 70 73 77 76 81 74 81
228 142 93 129 127 131 133 154 142 120 107 98 109 123 137 141 128 147 134 105 112 110 93 82 64 68 75 91 110 120 119 117 127 156 117 86 83 84 79 73 72 60 59
152 66 142 173 135 128 151 143 129 108 97 101 110 157 142 82 111 117 140 150 103 81 73 68 63 71 96 131 100 116 113 122 124 122 96 80 83 77 79 74 66 49 40
114 144 172 163 132 127 142 114 103 99 98 96 105 139 115 127 199 198 152 110 87 61 67 61 67 118 103 94 92 84 82 91 100 93 74 83 95 78 73 44 40 47 26
191 171 148 137 122 114 110 109 97 97 87 88 158 133 141 138 358 220 131 91 61 59 66 66 68 77 120 111 78 93 69 72 69 71 77 88 57 60 29 19 26 34 25
144 183 135 113 90 98 107 105 107 127 124 117 192 146 120 207 298 200 121 70 48 66 66 63 68 82 100 123 111 65 54 36 63 71 71 63 63 45 33 8 -14 0 21
188 154 97 79 82 93 95 106 125 148 121 110 201 169 127 187 262 182 110 46 55 56 62 59 63 82 137 114 83 55 43 41 35 48 57 53 36 19 9 1 -6 1 17
208 116 61 94 90 85 90 116 144 133 135 153 175 138 139 181 250 181 104 59 55 59 49 53 95 71 130 91 66 49 36 36 34 37 24 21 25 44 45 49 41 18 23
224 77 90 86 81 79 92 107 131 133 126 155 165 134 170 183 194 154 103 70 62 49 41 56 138 139 116 72 64 53 44 30 18 11 26 17 17 4 12 52 41 40 43
73 78 61 65 80 91 97 119 114 112 153 166 174 138 154 162 129 155 107 72 56 55 47 55 71 121 74 48 49 58 55 36 28 37 33 28 19 -3 -21 -34 -16 -15 -15
76 52 52 68 80 90 98 88 90 119 137 156 190 151 127 104 114 154 116 77 59 50 42 48 61 47 39 40 45 61 36 38 49 34 33 27 9 -7 -4 11 42 41 42
64 46 53 55 66 79 81 82 142 122 136 167 162 145 118 92 102 135 120 80 49 46 41 46 43 39 45 55 73 55 51 46 38 27 26 25 11 -6 -18 -15 21 59 29
33 38 49 56 76 88 104 110 164 132 131 154 143 136 104 94 105 109 119 75 32 42 32 52 42 60 70 85 70 64 66 59 47 27 15 27 30 -5 -20 -27 5 17 41
34 52 69 73 68 92 110 119 173 152 133 129 129 123 112 105 89 126 124 103 78 82 70 47 38 51 46 51 63 67 64 62 44 41 7 1 16 22 -8 -23 12 25 31
61 66 73 98 102 115 125 132 126 128 156 145 111 122 107 99 85 101 87 73 70 66 58 44 42 53 51 49 53 60 68 65 57 40 20 -9 -8 2 22 -19 8 22 25
62 70 89 103 112 120 119 109 116 114 140 126 118 112 98 87 66 63 72 77 65 79 64 43 46 49 52 47 49 58 62 76 64 42 22 -5 -17 -15 -13 -14 10 11 16
63 78 78 86 119 136 123 111 106 103 116 143 100 98 94 85 75 73 70 86 79 91 61 45 46 51 52 45 48 54 61 62 63 59 33 7 -19 -24 -20 -9 -8 8 18
94 100 120 142 151 150 136 135 136 103 103 115 116 99 107 80 89 87 91 99 70 77 76 59 50 56 56 50 56 69 62 55 59 60 53 27 -7 -27 -27 -19 -9 -1 27
105 145 178 179 196 191 165 145 119 96 102 116 129 102 86 98 98 114 123 117 106 85 81 72 61 57 67 70 66 73 65 59 56 60 59 53 23 -15 -28 -26 -18 -4 3
157 176 201 207 212 176 173 159 166 112 94 107 119 127 111 110 99 76 88 94 124 121 109 95 78 78 80 86 73 70 71 61 57 58 54 52 51 14 -13 -25 -21 -14 -2
184 194 203 195 175 166 161 133 147 177 114 96 102 107 121 131 117 95 85 76 64 91 129 132 103 94 92 92 76 76 80 74 69 59 52 56 46 39 19 -16 -17 -12 -6
196 214 181 171 163 143 133 120 117 130 115 95 89 80 94 115 114 114 114 112 98 91 112 131 152 124 116 122 123 96 84 79 78 78 60 51 47 43 39 19 -5 -7 -1
187 180 153 148 150 122 110 105 92 85 94 88 89 77 70 77 98 109 117 120 129 151 129 137 179 167 137 137 148 127 91 96 106 85 68 54 49 50 46 40 25 11 -3
146 223 167 132 125 111 95 93 87 74 70 88 76 75 58 60 71 78 90 100 108 145 175 162 188 182 154 131 150 132 96 112 111 85 81 57 51 54 51 49 45 27 23
118 122 129 134 125 104 96 95 98 93 87 80 66 63 62 64 58 57 67 79 83 94 146 183 178 183 151 132 126 115 117 162 130 119 83 65 55 50 51 56 57 49 41

GFSGL_con_3kmhel_042.txt.gz
Helicity
533 415 394 396 351 261 116 208 206 203 165 157 147 145 141 183 206 190 183 162 214 218 177 149 140 133 143 146 141 123 130 146 160 150 157 154 143 98 67 75 59 60 77
482 440 365 399 190 195 156 195 197 186 156 140 144 133 162 225 193 153 160 169 157 147 139 141 152 160 128 102 82 110 121 119 131 146 155 133 107 90 83 75 77 74 76
491 329 258 157 162 239 183 221 220 185 161 151 137 142 180 230 161 125 96 132 154 152 141 156 140 105 90 102 113 101 105 136 160 170 133 104 108 91 75 77 73 96 68
294 213 184 305 202 293 225 225 218 179 150 132 128 119 191 185 137 102 161 239 227 188 155 144 109 101 132 107 96 109 115 128 118 117 109 98 95 78 81 87 90 67 61
246 283 255 314 398 228 206 190 141 148 128 118 85 125 238 185 175 268 287 243 184 129 105 113 118 112 86 128 110 114 132 113 101 100 99 101 73 74 84 84 68 69 38
291 337 362 381 253 201 159 131 122 114 113 121 136 204 239 163 295 272 252 215 141 105 102 117 103 78 125 113 137 178 118 128 106 106 98 87 80 94 77 58 56 47 20
451 435 390 257 254 143 104 113 118 134 140 147 126 178 185 205 271 254 222 175 121 95 103 101 88 87 165 141 139 109 81 55 77 99 94 88 68 55 47 51 49 57 44
429 382 353 217 195 144 112 86 105 137 179 134 126 191 194 136 291 255 206 149 113 93 103 101 88 104 160 139 111 86 87 73 67 79 84 82 83 52 67 72 72 80 77
507 252 214 227 264 143 99 84 106 137 165 147 126 175 173 224 253 258 200 154 113 107 96 74 80 103 188 148 102 92 79 68 50 29 12 20 23 14 47 64 101 96 96
519 432 146 91 117 84 69 95 125 144 142 153 237 231 221 238 228 201 178 142 129 104 76 76 122 154 134 93 98 107 95 72 63 56 64 58 45 41 5 13 7 -3 8
451 137 132 69 63 70 104 106 114 108 107 136 195 213 172 199 189 184 165 156 126 112 98 73 98 105 73 50 78 110 107 85 65 80 68 48 43 25 5 2 17 35 44
411 151 86 54 50 57 85 96 92 94 137 162 208 220 174 130 125 206 161 137 125 127 89 70 67 63 31 42 64 69 69 74 97 86 59 58 30 33 19 15 10 25 45
141 113 61 30 38 56 89 101 109 117 185 185 180 179 167 141 136 155 173 139 125 124 89 58 44 38 23 51 48 84 98 100 95 89 81 58 45 59 24 -0 -13 9 28
27 19 44 51 79 89 94 90 111 155 230 238 191 180 168 160 126 156 156 161 118 113 71 59 70 68 69 70 57 61 112 111 112 105 83 63 51 31 42 18 7 -3 -0
36 46 76 95 89 87 83 114 165 183 205 205 187 180 168 155 133 156 164 153 166 158 133 96 64 58 70 68 60 70 81 88 95 99 87 79 50 9 22 53 15 -2 16
91 103 107 118 127 129 129 126 116 134 124 122 127 167 177 161 148 144 124 121 110 121 141 102 77 54 66 75 67 65 79 80 110 83 93 77 53 15 1 30 49 1 8
121 121 132 131 152 153 146 126 112 118 96 87 126 153 138 117 109 104 106 99 104 125 155 123 86 61 72 79 67 66 79 96 92 88 82 78 65 36 -9 -11 -2 7 17
148 131 150 160 163 147 181 176 168 147 137 125 98 127 119 88 96 87 80 92 126 136 145 145 100 67 70 80 73 73 108 106 79 80 71 76 73 60 -4 -22 -19 -10 10
179 191 183 173 197 219 227 228 242 193 169 157 118 126 157 96 90 86 73 127 129 130 124 155 131 82 74 91 94 101 116 94 84 83 68 69 63 61 29 -18 -29 -18 -0
152 158 181 194 204 224 215 225 274 215 170 179 142 125 145 193 168 124 127 138 145 127 102 102 142 130 104 96 113 127 110 93 84 78 75 69 60 60 57 5 -27 -28 -18
186 184 162 169 163 154 173 160 170 179 162 159 186 145 134 189 174 151 147 142 149 129 118 119 141 144 134 126 147 138 118 99 92 88 83 65 65 51 61 47 -3 -27 -26
189 180 178 180 205 187 166 156 150 124 118 109 149 150 77 129 172 159 132 125 103 102 97 119 153 187 175 168 181 154 125 118 105 105 88 79 64 45 43 41 23 1 -20
191 185 176 148 190 187 155 140 130 117 97 97 98 94 87 96 113 157 136 125 130 118 108 104 122 174 183 202 199 174 163 153 123 113 115 104 62 43 50 38 32 18 6
135 138 120 99 115 137 148 126 122 96 92 94 84 71 103 97 83 72 88 104 128 141 140 158 157 164 187 212 217 211 199 189 175 179 159 129 74 50 55 49 34 28 22
121 111 108 89 58 92 114 117 134 116 97 94 103 86 79 84 79 79 70 70 72 67 83 129 149 173 183 218 218 221 221 200 201 190 146 114 78 71 68 51 43 38 31
130 122 97 70 57 164 204 146 111 105 96 74 68 67 71 91 103 69 59 78 71 73 80 68 102 136 207 215 182 209 216 218 211 188 159 109 85 68 65 58 53 55 36

GFSGL_con_3kmhel_045.txt.gz
Helicity
522 541 551 539 501 390 401 487 427 229 207 197 166 154 144 188 170 153 141 154 182 173 160 174 174 191 177 153 158 134 119 105 97 68 65 79 97 104 77 51 59 80 75
546 596 568 526 365 405 378 390 298 193 201 177 160 137 128 187 184 159 135 154 161 155 145 170 175 164 137 139 103 79 54 41 74 86 91 81 83 75 90 96 83 79 75
618 589 452 303 303 411 515 209 208 282 242 191 146 115 128 187 171 124 118 138 161 206 204 179 153 154 157 121 97 80 68 81 111 129 113 102 106 96 106 102 89 71 62
625 485 351 291 309 342 264 384 252 243 197 153 126 103 121 183 171 131 195 270 252 218 182 155 151 177 132 102 81 87 104 111 113 123 111 96 90 88 107 90 61 46 43
560 443 279 292 410 412 476 248 199 155 123 99 79 84 149 184 192 197 216 241 240 198 157 123 144 131 108 96 129 115 118 114 116 124 114 94 85 83 69 59 41 31 28
444 390 467 520 522 489 265 152 117 101 91 95 132 127 144 179 190 199 190 200 192 169 131 109 119 112 155 167 153 141 125 110 109 139 119 111 96 82 71 59 61 56 65
530 545 527 583 650 312 277 212 123 87 90 115 115 119 135 201 162 175 193 191 175 149 122 110 121 138 136 128 118 106 88 73 112 120 116 91 81 79 90 58 67 101 124
659 697 756 786 523 322 345 231 148 91 95 120 131 131 156 159 169 177 193 204 182 142 118 124 120 112 126 118 104 82 76 85 92 101 115 79 91 88 98 78 88 111 106
705 792 856 668 556 424 214 168 102 82 92 120 137 155 168 183 174 176 210 203 169 134 104 101 111 138 116 110 83 60 62 81 69 58 47 42 42 43 50 59 37 4 -4
924 856 852 637 196 123 98 59 65 84 90 116 139 169 172 188 151 159 183 195 161 137 95 120 128 110 105 78 64 73 71 76 88 82 81 78 81 68 47 57 38 14 19
875 603 238 100 55 27 38 63 76 99 106 106 120 157 178 200 158 139 138 183 169 141 119 110 111 105 68 44 49 91 104 96 96 91 92 83 66 60 63 63 59 39 20
347 113 60 49 30 -3 38 78 108 113 114 122 169 179 191 164 148 143 135 148 143 160 130 112 84 71 50 36 47 49 44 78 112 106 119 85 79 57 52 65 43 31 37
93 96 69 39 46 64 91 94 119 118 143 161 225 208 189 156 155 102 138 142 146 147 145 108 58 46 34 37 30 31 47 102 114 113 110 99 93 78 40 25 39 39 37
88 78 72 79 90 101 102 115 135 143 152 166 199 203 187 177 169 179 192 156 100 135 132 112 90 73 65 57 52 47 69 88 110 110 105 102 95 71 56 47 50 41 7
74 79 90 109 110 120 131 141 160 148 163 176 182 196 197 199 193 163 171 177 160 150 158 165 129 98 74 55 66 65 67 76 96 108 82 76 75 69 61 47 35 33 9
92 118 123 126 133 150 158 155 140 131 118 111 100 141 151 146 155 157 148 140 128 156 203 208 165 115 78 56 71 59 60 72 114 94 81 72 68 67 57 30 14 14 22
147 146 162 164 179 181 194 201 175 170 117 133 91 78 81 93 131 137 134 120 119 129 203 185 162 132 93 71 72 76 67 87 105 91 85 60 62 63 55 34 -4 -8 9
149 176 215 227 245 242 240 236 255 219 200 181 174 125 92 66 86 106 88 112 163 140 144 159 151 137 110 79 65 85 87 134 110 86 69 59 53 60 48 42 -2 -19 -12
179 216 237 256 280 274 261 245 259 233 228 192 183 165 128 93 87 96 87 136 166 164 153 140 135 133 113 89 78 84 132 131 104 81 72 63 54 64 42 34 35 -23 -22
166 175 190 192 191 196 209 224 217 170 147 166 156 199 136 155 173 139 140 167 166 148 145 148 148 149 115 90 91 118 137 125 97 77 69 71 64 67 49 38 34 1 -24
168 183 185 196 197 200 204 181 182 176 152 138 157 137 92 112 122 172 151 181 158 152 137 135 125 128 136 127 133 170 173 140 108 97 92 88 91 62 40 44 34 12 1
177 172 162 163 161 154 139 109 90 162 166 156 126 121 76 88 59 83 96 152 205 167 147 132 123 120 126 130 139 170 193 168 137 130 119 99 98 65 46 40 32 31 10
155 163 173 161 141 115 129 84 69 118 128 118 120 129 118 87 88 122 80 99 158 146 134 134 112 119 136 146 179 166 177 171 148 149 132 124 108 82 66 46 38 33 28
149 141 153 149 127 129 126 120 85 141 153 152 130 109 130 136 88 75 75 75 70 99 127 132 142 135 154 162 184 195 171 173 180 158 155 158 128 98 79 65 50 42 37
129 145 151 125 136 148 133 83 130 144 181 124 98 83 72 60 41 51 69 138 92 73 52 50 74 79 98 150 203 211 205 196 214 217 200 178 129 116 99 70 56 47 47
127 116 109 119 128 126 93 19 59 72 65 99 123 108 106 77 74 73 46 66 70 100 89 78 69 46 58 91 156 251 238 200 225 224 203 164 130 103 87 65 56 52 52

GFSGL_con_3kmhel_048.txt.gz
Helicity
420 489 509 486 538 565 552 610 334 274 428 344 132 232 134 106 124 131 117 113 109 128 145 160 161 161 163 153 151 147 142 124 114 66 69 45 52 55 73 95 96 103 97
510 533 573 660 574 551 529 400 227 315 420 167 231 208 124 115 118 111 107 113 107 129 160 194 178 152 151 146 151 122 105 87 82 68 79 78 79 80 102 107 97 99 101
554 646 689 550 603 353 340 376 371 431 250 278 273 149 122 116 114 109 110 110 140 173 190 182 159 140 145 161 137 122 103 87 86 101 111 124 118 99 98 100 96 73 64
709 613 527 478 334 382 431 437 426 393 410 244 156 123 113 112 117 130 146 152 167 201 199 190 156 148 139 133 125 120 96 78 87 112 123 113 108 89 101 87 59 54 50
613 514 421 398 512 516 578 541 457 443 294 164 149 145 161 124 136 149 179 189 176 176 196 176 151 129 109 119 150 109 90 80 91 100 110 104 92 76 78 75 70 65 70
486 498 521 521 627 631 555 408 471 421 319 178 175 137 121 127 138 157 196 185 166 170 164 161 143 114 140 155 140 100 76 84 87 122 126 102 90 86 80 88 91 73 56
611 583 598 599 586 593 587 820 738 429 175 137 113 106 110 127 133 144 157 187 177 168 167 160 140 153 155 138 114 93 79 73 89 125 106 105 89 82 86 77 80 97 82
674 701 702 762 885 1012 992 504 167 80 73 65 68 85 116 131 144 137 152 205 190 158 164 160 137 117 132 129 102 77 66 61 78 107 126 117 123 106 102 87 88 42 53
753 791 899 906 883 585 250 72 74 69 56 59 82 104 126 138 140 141 204 211 197 172 165 140 125 132 128 111 91 59 47 51 63 68 77 65 56 55 77 87 70 21 -0
782 794 709 516 347 108 91 98 59 89 92 99 106 114 121 143 155 159 186 231 212 178 154 130 115 128 115 98 87 56 54 57 64 72 97 92 80 73 54 102 110 54 27
589 571 188 107 140 127 118 128 108 95 108 121 124 125 139 181 181 148 143 229 202 191 178 150 140 99 99 93 59 77 78 65 57 77 95 98 101 84 85 81 84 103 35
162 138 125 124 140 135 118 108 116 123 132 132 145 145 172 185 178 163 142 157 173 213 177 159 132 97 77 68 57 44 31 60 94 95 89 84 91 90 71 69 62 85 82
145 133 147 131 110 114 131 122 144 143 153 158 175 178 180 187 197 151 145 132 131 214 190 147 102 95 82 77 45 25 39 74 83 90 85 96 101 97 72 65 63 65 72
144 128 107 106 109 115 133 147 166 169 183 196 194 192 195 204 198 186 187 168 124 178 161 132 140 134 127 99 77 51 69 77 89 94 97 98 87 75 85 92 71 42 40
93 91 97 113 123 139 150 173 196 203 217 222 218 224 215 196 184 159 187 209 203 189 195 186 156 136 131 130 102 71 73 65 89 104 115 93 75 66 71 77 69 42 33
105 125 150 170 176 186 198 195 179 190 174 171 164 215 199 158 115 103 96 124 147 151 186 202 153 149 144 126 102 81 70 54 72 110 110 95 76 65 63 59 62 54 16
112 118 135 147 173 205 228 259 249 206 168 151 146 149 129 118 131 122 92 101 141 171 219 219 178 156 133 124 114 101 74 64 80 120 111 83 70 62 55 45 43 43 11
139 150 173 188 201 208 222 231 237 249 242 236 180 175 130 115 112 117 105 120 138 158 197 179 171 148 132 118 108 94 71 74 114 129 111 83 73 67 57 43 38 36 27
130 140 154 160 167 175 177 172 174 177 197 197 145 178 153 107 120 112 90 156 146 205 186 175 192 160 132 120 103 99 90 85 130 134 103 85 74 75 58 44 38 27 23
134 145 156 171 177 175 178 179 172 173 166 160 160 181 164 177 135 110 104 102 124 151 193 176 159 144 146 134 107 95 91 99 123 115 97 88 76 81 66 50 39 37 33
136 143 162 169 175 164 160 159 148 140 126 107 92 101 127 159 106 76 84 121 111 111 150 184 158 145 124 122 101 95 100 100 127 122 113 89 94 82 62 58 45 30 33
165 174 163 168 163 170 166 170 180 143 139 96 119 140 102 108 82 88 75 80 84 95 114 137 154 134 126 117 111 106 119 121 130 130 125 114 102 79 79 70 54 39 33
166 158 162 154 151 158 151 182 153 103 95 91 48 162 155 122 126 127 111 82 92 67 81 118 144 129 124 121 124 123 135 138 136 144 143 134 121 105 95 81 64 50 40
152 130 130 123 129 146 156 154 142 77 19 99 130 141 150 107 99 112 62 67 67 102 95 63 79 111 136 148 140 136 142 138 156 136 151 148 137 121 116 103 81 58 45
133 117 110 113 110 111 123 138 116 59 -51 -132 -44 30 70 82 96 97 75 71 63 38 84 68 70 57 62 56 92 126 142 167 190 153 150 144 145 138 128 114 95 71 59
126 125 115 111 106 105 108 106 99 72 21 -62 -37 48 75 58 62 88 84 86 81 96 108 108 92 77 28 53 56 82 131 203 216 180 171 170 161 142 133 107 88 78 66

GFSGL_con_3kmhel_051.txt.gz
Helicity
258 315 367 410 466 512 545 713 780 650 433 195 289 228 336 302 209 205 154 103 169 158 104 91 108 147 156 146 149 160 166 165 160 121 105 82 81 66 62 78 75 89 91
322 371 443 555 594 709 709 639 645 381 328 356 270 216 273 258 262 173 158 201 193 133 90 114 143 184 163 148 153 144 148 134 146 120 96 89 87 89 77 75 80 83 91
409 509 603 665 637 619 616 521 281 393 383 374 239 288 328 305 207 164 171 150 136 119 134 163 160 176 161 161 147 144 148 136 129 129 104 109 99 90 78 73 71 75 79
508 554 635 589 618 553 428 361 428 388 413 480 200 311 335 158 164 144 125 112 137 146 159 175 174 165 147 154 154 144 153 141 133 121 107 99 100 90 87 63 48 73 68
555 528 545 465 469 432 460 438 518 532 345 348 459 176 121 147 100 105 125 137 155 169 172 171 180 174 148 141 174 151 159 151 128 110 106 99 89 79 70 67 77 68 73
502 512 515 533 499 478 386 519 544 524 653 238 114 159 162 115 92 75 128 171 184 196 185 189 180 162 148 134 130 133 159 155 116 117 114 99 96 88 77 59 66 65 41
547 516 533 510 535 592 696 788 778 344 190 145 161 120 122 102 74 85 145 197 204 201 214 207 195 181 167 169 151 165 147 102 98 118 115 103 101 90 77 54 66 85 92
582 635 653 688 704 700 665 641 435 200 160 181 159 135 121 111 99 113 148 197 217 211 218 208 207 166 151 150 169 169 139 106 86 91 100 90 95 90 115 100 83 79 84
672 675 648 613 611 538 515 297 159 222 186 199 128 118 126 118 103 131 185 223 228 216 211 220 196 167 118 110 170 154 123 85 63 55 60 54 50 53 62 102 82 72 67
631 583 601 430 441 236 102 122 184 181 171 154 137 140 136 141 130 141 199 269 252 228 215 203 145 165 131 113 171 157 124 84 70 71 79 73 78 78 60 113 125 102 85
573 429 217 108 122 131 161 159 165 142 148 144 152 157 159 157 158 157 166 283 246 247 240 207 184 151 135 112 109 157 131 92 64 72 78 85 88 87 95 99 109 129 113
124 111 147 139 132 118 128 125 127 136 147 157 181 179 183 172 163 163 159 186 216 259 223 200 177 152 141 98 101 88 73 83 90 86 90 84 93 90 91 89 87 98 117
122 116 112 104 104 109 117 122 150 162 185 200 217 221 203 198 201 149 145 159 157 234 222 190 161 136 115 113 85 74 88 100 93 96 83 94 103 89 80 73 71 75 78
140 123 122 130 130 132 146 162 183 197 215 225 244 242 236 236 232 206 206 192 146 168 204 191 181 175 181 169 133 115 136 113 105 94 95 94 93 87 85 79 75 65 53
126 129 128 126 126 131 143 163 195 227 247 238 252 266 261 242 220 199 196 208 196 188 222 230 219 172 180 173 140 121 122 122 126 109 105 106 98 89 86 70 71 60 66
131 119 112 109 121 131 139 134 126 139 147 166 177 233 235 215 140 148 159 137 119 142 211 229 218 181 167 159 145 121 120 106 109 109 105 107 99 88 80 69 66 67 58
116 103 95 102 109 121 136 158 165 124 114 120 119 110 128 148 144 113 164 99 127 147 216 211 228 204 184 157 143 131 104 106 116 112 114 118 105 88 75 70 58 56 52
111 126 124 130 142 158 174 182 190 200 201 166 110 117 107 115 110 90 100 99 151 188 190 191 228 203 188 173 139 126 107 99 115 102 116 118 110 104 80 67 57 54 53
92 98 119 124 137 156 168 179 182 177 175 169 143 109 95 83 92 70 85 124 144 140 158 170 177 189 202 171 141 115 111 105 109 119 122 123 110 107 75 63 57 41 45
99 112 123 134 148 167 175 175 162 170 163 112 132 142 122 93 49 102 127 106 115 104 111 134 143 167 190 186 148 119 104 106 107 113 118 127 116 103 78 65 61 56 46
108 123 155 164 178 161 151 147 153 164 133 91 85 112 72 141 45 59 100 86 69 74 108 132 112 129 148 165 147 125 107 98 104 110 118 132 132 100 71 77 55 57 45
140 145 158 153 143 140 128 132 150 145 113 94 69 62 125 116 227 203 188 144 104 91 68 91 97 124 133 157 138 115 106 100 103 107 114 130 139 94 102 91 69 64 53
156 169 159 151 140 129 124 123 118 108 104 97 76 23 0 12 79 154 154 119 111 80 70 88 88 91 139 152 124 109 106 109 110 130 139 137 147 133 123 103 86 74 58
165 162 161 146 135 133 136 118 110 88 82 80 74 -1 -72 -38 -18 17 75 89 82 89 75 50 68 74 86 104 116 125 122 117 130 134 155 161 158 150 135 122 106 83 66
158 158 146 146 142 138 129 115 105 85 73 67 64 61 -9 -79 -24 0 31 66 77 69 98 99 64 73 71 69 36 75 102 103 131 159 158 167 164 157 140 137 125 102 81
139 142 129 138 137 130 119 100 88 75 73 72 77 74 52 40 55 69 45 57 84 90 81 105 101 117 144 57 43 31 63 76 116 177 189 188 184 166 152 139 121 104 88

GFSGL_con_3kmhel_054.txt.gz
Helicity
293 278 237 203 206 277 381 427 466 589 589 536 452 193 310 344 319 243 196 151 154 173 165 155 117 123 137 165 192 205 203 226 237 193 158 126 116 85 76 81 83 93 95
253 256 249 267 325 407 512 436 564 548 437 350 355 317 332 371 377 134 134 158 202 192 148 141 112 158 164 178 204 194 217 206 220 176 164 126 98 80 79 76 83 81 91
261 312 328 368 395 425 418 505 467 487 382 304 240 382 296 245 154 102 159 195 163 145 131 147 143 184 186 200 211 221 218 195 209 215 163 131 89 75 72 82 81 81 84
325 355 384 402 440 458 437 436 405 463 456 292 421 193 199 79 128 173 165 139 144 147 155 164 174 194 194 196 215 215 214 208 200 192 161 128 95 84 87 76 58 77 74
340 382 404 447 361 392 441 433 567 416 272 286 378 252 66 160 223 174 147 146 155 155 164 182 193 184 158 185 241 212 227 220 202 182 154 125 94 83 71 82 74 82 58
293 325 361 404 422 405 452 563 355 322 483 349 164 123 191 214 132 112 135 169 171 185 186 186 199 178 187 181 163 163 207 233 204 204 163 121 99 86 88 80 79 50 42
335 347 396 430 421 509 535 398 461 515 429 270 152 173 151 141 118 104 114 179 209 209 206 204 218 215 194 211 175 172 191 165 202 188 147 131 114 96 82 71 64 69 65
396 408 409 489 540 545 516 558 537 281 210 140 151 150 144 125 113 115 116 195 218 208 209 208 229 212 214 209 206 189 183 184 162 153 141 117 100 81 90 84 84 101 107
381 429 476 466 480 484 447 466 137 118 148 147 138 146 156 143 111 114 151 209 227 213 209 223 224 233 179 161 219 172 159 150 131 90 73 64 49 45 56 93 77 77 62
443 477 491 473 500 183 84 118 138 129 133 139 150 149 147 166 136 146 171 252 252 235 228 215 162 225 171 162 217 196 176 132 142 115 106 75 62 70 57 89 96 95 88
297 323 170 111 107 97 127 132 132 129 141 142 150 163 176 183 179 156 161 266 264 259 268 241 223 151 150 158 158 224 182 135 123 116 100 87 77 79 81 87 88 105 111
210 190 147 104 103 115 109 109 115 125 134 144 167 171 197 204 190 180 171 178 223 268 261 242 213 129 134 168 170 166 116 126 140 126 112 95 87 84 74 80 73 85 108
185 171 163 155 142 134 124 122 130 139 158 173 193 203 202 204 231 190 175 159 170 247 245 221 182 143 140 182 155 149 133 161 154 138 118 102 101 87 79 75 68 64 69
197 189 159 142 129 119 117 119 132 147 162 170 186 199 204 208 208 211 230 251 205 208 210 197 226 203 212 213 202 168 199 180 170 150 120 111 91 95 97 83 80 62 68
169 147 131 115 111 106 109 111 127 136 155 181 191 206 225 221 203 183 194 211 216 195 215 333 264 185 196 216 212 198 197 181 180 163 132 114 103 100 95 84 77 64 71
132 112 95 86 80 80 81 86 89 97 115 133 145 173 173 140 110 109 117 122 91 171 209 220 150 171 188 186 198 176 181 162 159 157 137 125 103 102 91 84 75 70 63
101 93 75 73 71 75 88 92 91 104 124 149 159 126 105 108 98 76 72 81 83 83 104 163 175 172 181 159 175 186 166 144 130 140 127 109 106 96 96 80 69 69 62
87 93 77 73 84 93 93 109 124 139 142 135 126 102 115 142 77 62 66 69 79 101 126 144 150 189 170 170 173 184 165 146 133 123 121 111 113 111 95 78 66 70 59
77 72 78 77 77 88 113 122 132 142 164 147 101 85 74 89 109 76 50 106 32 101 109 100 99 132 151 127 146 166 158 138 130 130 114 114 120 128 90 72 65 62 59
84 96 87 76 98 110 127 141 158 159 152 114 107 95 74 42 38 59 148 71 40 63 63 51 62 105 126 156 153 157 163 133 122 114 105 113 131 139 98 81 79 67 51
74 83 104 107 126 143 148 151 150 153 126 119 98 91 89 86 70 39 6 96 135 169 129 107 64 94 109 112 143 144 147 131 119 115 112 116 140 132 100 79 76 67 49
101 109 110 125 137 156 160 158 148 140 128 112 100 74 61 64 57 31 8 23 98 136 170 119 99 99 76 99 135 133 142 120 115 117 109 116 125 124 123 92 80 72 59
100 122 129 148 160 164 162 154 149 138 122 110 94 78 65 59 53 22 -10 -10 -4 29 89 142 105 71 91 71 65 147 141 105 99 123 127 129 136 132 144 114 97 83 67
115 132 142 152 156 161 168 156 136 127 111 101 85 67 68 61 63 55 22 -9 -3 49 58 109 113 84 73 70 44 78 113 117 108 106 122 150 167 172 166 134 111 89 83
127 137 144 147 169 163 154 137 131 123 108 95 78 66 63 67 69 72 50 51 60 34 59 97 104 106 63 97 103 69 62 36 97 117 136 143 158 188 177 139 134 106 102
130 141 137 142 163 151 139 127 123 118 104 85 78 70 68 75 72 74 58 41 35 83 87 72 112 115 118 77 95 110 115 76 19 118 136 150 171 193 190 151 127 116 113

GFSGL_con_3kmhel_057.txt.gz
Helicity
173 183 189 189 183 212 195 201 229 307 282 453 500 414 390 257 229 261 230 181 98 147 186 142 95 99 103 102 132 156 168 177 167 154 192 152 118 100 97 91 73 66 72
142 166 167 176 191 186 223 322 380 464 334 394 439 409 402 252 394 162 131 102 145 163 118 117 96 115 98 115 144 144 167 171 193 163 154 155 120 101 91 73 67 76 81
141 161 187 181 226 298 360 354 395 453 351 370 436 347 491 204 93 71 87 150 134 110 100 108 102 125 122 130 144 162 168 181 207 211 163 149 123 101 85 65 63 68 78
163 183 200 217 261 272 280 197 232 253 424 480 443 304 243 166 150 64 123 112 100 111 103 117 128 142 133 128 148 163 172 187 207 213 175 139 119 102 89 62 59 63 67
200 196 200 184 179 210 239 220 245 360 372 449 244 217 271 155 99 101 107 101 109 119 130 143 143 141 156 149 183 168 190 191 199 193 175 138 112 105 86 66 60 54 50
215 205 200 232 230 252 300 387 301 437 380 343 207 209 123 121 74 44 65 102 127 157 164 167 163 176 164 172 183 164 162 166 163 191 160 133 98 103 77 68 62 58 45
205 191 212 259 316 339 360 306 415 401 440 140 104 123 141 80 70 83 87 134 168 178 178 183 186 212 186 165 161 182 182 185 185 159 144 116 101 83 72 62 59 58 51
231 253 281 311 325 336 414 439 385 294 117 90 124 118 87 76 108 92 105 146 191 184 186 177 185 189 189 161 178 197 172 170 158 156 133 104 95 84 77 64 54 49 54
264 301 335 362 366 348 366 221 115 99 116 131 113 92 111 103 104 111 142 181 199 190 194 187 203 202 189 167 195 192 164 153 136 107 108 93 87 77 57 61 56 56 52
256 256 233 233 190 116 91 102 107 122 120 109 101 99 114 113 114 126 153 204 224 230 197 200 222 186 203 184 215 196 177 130 135 122 107 98 86 80 65 59 59 62 55
174 171 180 167 141 135 126 122 113 111 106 107 113 114 120 129 137 149 165 215 241 239 251 240 233 196 176 170 176 201 193 125 151 129 105 102 94 87 75 67 67 72 64
207 219 220 191 151 127 129 119 108 108 105 104 115 121 136 142 159 168 177 185 192 256 256 247 220 205 172 165 170 167 157 174 170 144 117 108 87 76 75 70 65 65 65
205 197 179 157 145 135 133 128 116 121 125 127 130 136 149 163 167 140 151 194 210 246 237 201 171 178 167 179 181 170 177 191 196 179 130 109 92 71 77 76 65 51 46
189 177 159 153 137 130 117 118 118 123 129 138 147 153 150 156 165 183 199 185 164 183 177 141 136 167 179 170 238 153 166 200 211 204 143 102 107 96 87 76 67 53 47
173 162 149 128 128 120 113 108 107 113 135 137 145 168 177 169 176 165 146 146 147 134 130 129 140 108 186 221 151 103 132 166 190 159 168 128 118 110 86 85 67 50 47
163 141 128 113 102 89 88 91 115 99 107 129 165 202 198 216 184 159 151 117 88 94 115 129 134 101 150 150 110 100 119 113 138 111 149 124 122 115 83 84 67 49 42
135 116 94 86 82 87 84 85 89 84 89 136 165 168 187 171 158 156 143 126 86 76 105 93 84 103 100 82 122 95 108 95 102 118 120 115 114 103 100 80 61 47 41
108 111 90 86 83 81 88 83 77 86 91 110 120 135 152 155 134 147 154 141 172 133 102 58 35 96 107 76 71 90 84 79 85 112 128 113 106 97 90 73 54 43 39
100 98 85 78 89 88 83 82 98 106 125 123 135 146 135 125 87 98 122 120 152 145 119 150 131 42 59 35 50 69 65 71 79 87 110 116 104 96 75 60 48 50 43
92 112 101 96 94 93 92 98 113 140 142 149 151 145 122 99 84 65 58 64 82 84 22 55 80 88 93 44 49 64 48 59 73 82 95 104 95 87 65 63 54 42 40
86 97 105 93 96 98 98 117 131 148 152 156 145 124 107 99 100 82 64 53 50 46 44 13 47 84 99 87 102 43 51 60 55 64 89 89 94 86 68 61 57 50 41
97 104 102 102 94 108 121 136 149 158 158 167 135 112 95 93 94 77 64 59 56 45 45 44 59 86 93 102 94 72 46 45 47 61 70 92 83 76 71 66 64 52 43
110 112 107 107 106 119 136 155 163 161 167 148 131 118 108 98 80 68 62 58 53 48 57 43 35 31 54 87 80 85 61 55 55 60 49 79 80 69 75 74 81 66 50
107 109 112 113 128 141 157 172 172 162 144 125 118 112 103 89 74 64 62 68 60 49 47 55 32 52 76 102 95 84 77 53 56 69 55 54 85 87 93 92 94 79 67
110 119 125 129 139 156 168 175 165 145 126 113 110 104 91 81 69 62 65 72 74 60 54 51 58 43 86 131 121 97 92 79 66 87 60 61 55 99 135 136 126 102 87
119 131 135 134 150 159 164 162 150 127 113 104 97 89 80 76 67 64 68 76 73 59 44 54 52 98 88 101 99 101 113 114 75 90 43 73 83 95 120 157 147 113 87

GFSGL_con_3kmhel_060.txt.gz
Helicity
72 97 137 131 114 155 173 172 181 282 242 200 294 297 326 436 453 323 287 220 119 103 83 108 120 121 118 114 117 115 127 128 145 130 133 127 198 179 123 116 105 100 86
72 90 97 134 117 128 159 175 247 347 379 322 389 211 295 485 434 296 250 121 66 41 94 145 107 114 105 105 120 125 132 133 161 136 114 140 158 173 153 123 98 97 79
89 108 123 153 178 186 246 331 337 434 410 396 404 316 500 342 256 200 114 118 71 98 129 119 101 98 108 120 131 148 145 152 157 154 143 146 148 161 143 127 105 88 75
170 178 178 183 196 205 206 222 250 204 234 237 360 360 311 313 157 50 90 29 81 120 107 98 96 101 112 123 142 154 155 153 144 149 161 150 148 137 155 126 108 100 74
209 209 214 222 228 238 233 236 263 263 196 214 286 336 296 225 63 36 52 90 92 105 95 98 104 118 126 145 167 175 158 160 166 168 164 171 148 132 145 137 114 91 68
268 286 279 272 272 243 224 217 242 239 247 236 289 217 159 95 79 100 82 83 74 84 105 102 122 176 179 172 202 188 148 151 153 182 170 187 127 128 138 121 99 89 69
241 238 231 222 229 237 228 270 279 266 171 195 153 106 68 87 104 89 88 82 102 110 128 144 155 160 216 201 193 198 179 167 178 140 151 150 114 120 117 105 83 85 68
235 224 207 203 216 214 244 221 155 125 126 86 82 86 81 84 125 103 108 119 137 142 159 168 170 164 161 217 192 152 175 175 190 188 127 101 120 109 108 95 89 75 60
184 167 158 169 172 166 160 139 113 96 73 66 76 95 93 86 124 108 127 156 176 173 174 179 185 184 178 238 223 174 175 177 187 190 138 139 173 165 124 99 95 80 62
155 168 141 134 109 134 126 86 82 91 103 98 103 103 109 100 112 126 164 203 210 230 222 227 239 228 202 220 251 255 217 161 151 126 159 127 113 95 95 89 81 83 65
176 170 158 136 131 127 126 119 109 109 110 123 112 112 115 135 152 215 211 247 265 290 307 294 273 235 238 202 185 208 244 158 140 136 148 150 138 108 97 101 59 71 65
181 167 174 178 155 134 128 121 110 122 120 122 135 125 141 161 193 195 200 215 236 259 252 261 241 219 187 165 199 160 148 220 176 206 186 148 128 118 91 105 86 82 71
193 190 182 157 144 141 150 140 134 135 136 133 126 132 143 161 156 189 234 189 152 178 189 166 123 122 92 104 90 118 162 238 238 213 144 148 154 124 94 103 93 77 62
221 206 183 189 162 150 131 134 143 142 132 127 138 145 158 145 163 207 164 151 142 154 149 168 153 115 93 92 89 59 149 200 235 216 129 138 140 171 148 114 98 88 59
221 202 187 167 158 142 145 145 142 155 138 130 153 151 146 135 165 139 135 155 156 145 143 148 134 112 102 94 101 49 140 181 110 121 113 157 143 159 142 102 96 86 57
214 193 180 157 145 144 140 112 122 121 116 135 167 134 118 143 146 141 152 147 124 129 142 140 123 115 98 68 66 55 115 81 88 113 106 124 122 135 124 103 104 88 53
207 181 155 142 139 136 123 119 120 110 61 95 121 124 156 149 160 160 165 136 118 130 151 151 128 95 30 29 46 54 84 66 96 118 96 126 120 109 126 109 110 77 51
183 166 134 129 129 123 121 115 113 116 107 105 124 140 166 160 147 142 143 107 127 136 143 132 103 77 90 141 68 59 59 80 91 115 92 101 115 123 108 104 88 67 46
142 130 122 123 127 118 111 113 114 106 115 107 114 137 176 154 96 112 118 136 116 98 96 100 61 23 49 117 161 67 51 44 62 86 83 83 102 122 97 86 69 56 54
121 141 127 122 116 115 120 123 121 121 115 122 133 161 165 143 144 141 121 112 100 85 67 72 70 22 22 47 68 92 112 53 56 54 67 75 107 123 90 85 67 64 46
120 124 121 111 122 131 131 130 126 126 127 133 148 172 165 131 133 124 112 104 101 82 64 51 61 56 43 36 62 92 97 99 43 52 49 48 97 106 81 69 58 52 40
122 118 116 127 125 137 142 137 134 136 137 147 155 158 144 128 129 114 107 101 90 72 68 61 54 50 47 63 77 114 102 92 100 83 38 40 74 93 78 61 54 57 39
118 118 125 137 140 137 136 142 140 143 151 159 161 157 147 141 122 112 110 92 82 72 67 73 64 52 40 37 42 46 87 92 74 72 62 59 52 75 77 67 55 58 43
123 131 141 143 154 146 151 145 147 151 160 174 173 165 147 123 103 94 94 89 80 71 75 80 71 47 39 38 45 63 69 52 44 59 77 70 37 51 73 66 58 41 46
123 129 140 146 153 155 149 156 167 179 178 174 167 149 124 105 91 85 83 82 75 67 67 72 59 42 33 42 68 88 93 86 60 65 54 44 62 26 55 82 87 79 70
115 125 136 149 160 160 173 179 183 181 175 166 145 122 102 90 80 75 74 67 67 62 51 56 44 29 18 21 63 64 94 112 81 83 51 40 54 46 52 74 106 123 97

GFSGL_con_3kmhel_063.txt.gz
Helicity
104 174 213 240 220 183 188 245 260 176 187 242 363 527 415 426 293 204 268 368 307 198 157 111 52 70 136 157 158 143 148 160 191 167 161 146 157 140 145 176 193 164 144
108 141 264 185 185 166 162 171 217 283 308 398 480 420 273 353 311 367 359 211 161 119 72 21 40 111 137 131 137 134 146 146 181 182 171 192 148 141 154 195 228 136 127
153 233 262 192 155 221 271 283 296 342 383 390 351 342 325 356 255 271 271 214 181 72 -0 39 108 141 155 148 131 155 167 164 204 224 207 200 174 166 157 186 206 163 150
297 275 265 245 248 253 253 263 276 277 280 258 292 329 246 249 254 222 226 155 58 20 60 101 115 143 119 126 144 158 173 197 214 236 230 204 174 152 169 198 162 144 143
278 313 300 286 275 277 279 268 268 264 316 298 260 223 243 213 192 151 125 82 83 91 108 94 105 110 121 157 179 186 195 218 260 250 242 233 231 204 209 164 139 126 172
306 304 277 278 298 280 272 238 238 249 246 213 185 187 188 187 130 81 93 123 107 93 81 92 103 121 179 230 273 254 207 214 219 238 238 190 182 179 149 106 115 196 166
235 214 203 205 228 224 222 222 230 221 207 186 189 170 132 96 89 88 107 98 96 98 99 114 127 147 167 185 216 267 306 272 255 204 191 158 145 145 110 126 156 172 152
168 187 195 209 211 213 204 219 211 198 195 165 135 106 82 89 79 84 117 104 105 100 107 122 155 176 186 205 223 223 190 236 252 252 217 175 144 127 128 139 173 193 148
202 212 215 211 193 176 183 183 181 157 125 101 89 92 106 114 143 126 130 129 138 145 155 162 180 207 202 188 200 235 182 155 192 246 215 257 275 290 224 201 191 150 125
205 207 192 179 168 160 154 142 105 95 121 126 121 119 137 99 232 216 185 178 186 197 202 206 209 228 245 256 274 241 174 144 131 128 269 219 201 198 199 174 158 148 119
186 193 189 172 121 124 150 148 141 147 145 139 121 127 125 163 196 228 217 184 206 208 189 191 203 188 196 206 184 191 165 88 86 104 146 218 232 202 159 141 128 106 84
194 184 161 180 181 175 165 154 143 152 165 154 163 144 145 156 214 272 255 215 179 170 168 181 174 156 130 114 141 116 99 76 86 112 174 201 222 250 142 130 185 144 117
215 214 206 194 198 185 184 199 187 175 167 179 157 157 151 177 158 246 217 164 132 152 148 135 108 104 89 118 107 104 108 113 91 100 132 284 289 179 119 127 145 152 123
235 225 221 227 213 199 178 191 202 192 185 170 163 160 182 167 179 215 152 129 124 127 127 129 128 111 114 134 146 126 142 114 104 88 84 197 142 160 125 174 162 174 130
237 260 277 256 227 195 211 224 197 196 183 172 199 195 191 168 204 159 126 117 130 114 110 120 127 134 134 113 89 80 66 91 96 83 119 149 110 98 137 167 171 147 111
280 292 265 227 209 196 194 148 173 180 154 177 204 191 160 171 155 130 116 117 111 94 126 148 144 133 127 117 85 3 19 53 99 105 72 49 83 116 129 141 143 131 107
317 287 246 212 208 203 172 163 159 117 92 105 133 134 130 138 135 127 133 134 107 141 168 152 132 122 110 82 58 64 42 32 79 77 44 65 86 101 119 111 144 120 126
313 289 216 195 184 164 166 159 155 163 158 147 117 148 163 142 145 122 146 154 194 181 161 138 122 107 92 58 -32 35 75 112 51 58 76 76 77 85 88 95 128 134 116
259 212 186 162 152 148 144 145 149 148 156 156 146 135 176 190 123 98 143 188 182 160 143 126 110 95 77 60 12 23 69 144 180 41 41 56 67 90 81 94 131 109 93
179 181 144 114 115 131 135 138 144 149 154 148 149 161 167 165 154 168 181 180 162 145 130 117 104 86 69 59 46 40 55 73 128 175 45 59 63 60 67 112 118 101 100
149 120 118 112 132 139 141 142 149 147 151 153 150 184 186 160 142 172 178 166 151 129 114 110 102 86 69 56 53 55 65 60 89 159 112 115 56 43 76 106 94 94 101
131 120 126 136 133 138 150 139 150 152 155 158 158 162 164 138 170 177 165 154 133 106 108 105 98 82 70 66 50 49 57 64 85 108 78 102 110 63 74 100 76 91 84
130 135 132 134 137 134 114 138 146 155 167 168 161 163 167 174 178 162 151 129 108 105 98 96 90 81 67 68 58 40 40 46 67 67 69 83 46 76 46 72 72 86 80
137 134 136 135 140 135 141 153 147 162 164 165 167 169 172 173 162 143 124 110 99 90 85 84 81 61 55 51 42 40 39 45 55 57 98 87 57 23 99 61 77 66 59
141 145 144 145 145 149 143 141 163 171 178 175 183 186 180 173 157 138 110 97 91 79 74 70 71 51 42 26 26 33 33 45 44 64 73 56 56 49 33 41 72 82 61
156 151 151 154 152 152 155 161 169 181 191 189 191 175 166 152 134 113 103 87 78 75 61 68 51 35 29 35 31 31 24 39 59 84 68 51 45 42 17 55 50 92 94

GFSGL_con_3kmhel_066.txt.gz
Helicity
118 149 150 225 302 319 318 316 315 354 355 355 330 346 348 410 416 414 351 398 357 218 253 217 155 126 104 61 116 210 270 238 232 223 212 194 205 220 235 224 243 264 284
164 168 235 304 356 337 324 290 313 334 320 338 322 357 409 341 370 321 326 286 222 186 167 153 123 93 52 104 177 167 180 198 230 203 236 259 233 210 220 240 235 232 280
236 164 299 377 344 321 312 277 297 327 362 380 402 373 332 392 377 257 244 225 206 146 160 147 97 87 118 157 148 181 210 207 243 271 277 301 307 271 248 219 257 228 221
534 612 605 492 343 293 307 319 310 306 343 365 358 380 367 325 246 217 200 163 153 149 128 109 107 114 125 140 164 190 199 233 257 268 273 296 310 266 273 290 280 272 249
401 392 376 338 327 288 284 309 300 319 339 322 320 316 282 239 232 180 196 184 162 130 125 106 83 84 78 109 159 211 245 275 291 282 275 311 336 334 331 293 251 203 194
350 328 319 327 322 292 332 347 323 309 305 310 298 287 265 221 184 169 170 166 142 125 102 82 94 91 103 114 154 200 252 293 321 373 362 340 282 292 295 212 177 210 212
329 299 282 266 279 238 240 254 264 248 247 258 259 237 202 189 158 124 126 130 108 98 97 107 109 114 112 111 117 139 166 212 295 308 346 287 248 279 277 236 213 223 233
219 215 203 202 206 195 202 219 232 226 230 229 210 173 152 143 131 132 120 95 96 108 114 120 142 164 188 228 211 211 230 259 302 315 285 248 235 269 287 243 209 221 231
152 156 191 209 211 242 256 214 207 225 202 173 155 143 147 290 265 192 134 175 180 167 155 171 182 164 160 173 182 179 185 214 204 193 154 118 172 179 243 343 348 288 216
212 254 238 249 241 216 185 177 168 155 143 151 191 232 206 241 244 226 181 168 176 173 158 136 131 146 164 172 181 206 209 212 198 149 81 49 87 192 245 265 243 231 231
291 256 245 230 189 150 126 125 143 225 282 222 217 227 229 220 243 212 201 152 155 138 135 134 135 120 128 128 129 171 185 173 166 161 136 108 92 154 204 272 255 222 212
279 260 205 180 179 206 228 246 246 234 246 237 230 216 200 225 225 242 234 208 178 141 132 127 128 104 100 113 141 132 129 173 208 178 139 110 86 104 200 259 194 167 186
277 276 268 229 233 221 261 254 286 259 260 250 231 226 231 247 197 300 253 208 165 147 141 125 88 76 105 150 120 120 147 189 204 196 159 104 75 66 235 287 279 127 136
338 303 276 286 279 288 297 311 313 312 279 245 235 235 250 241 254 210 177 152 149 147 135 125 125 119 136 136 137 129 123 107 114 168 165 118 81 90 202 286 131 183 203
370 353 336 312 291 383 387 319 251 240 232 250 273 262 232 225 230 200 168 146 139 126 121 133 139 151 142 136 124 114 106 117 100 63 147 116 73 61 227 261 111 190 202
459 443 369 368 380 325 242 246 256 162 157 184 203 202 186 199 200 182 161 133 124 113 136 148 169 165 155 140 126 99 70 71 95 121 104 80 80 63 73 97 154 191 185
522 443 421 384 359 318 270 224 172 146 100 100 114 127 151 160 164 170 140 122 115 98 158 176 184 178 159 138 116 92 60 -12 -35 216 29 34 53 66 84 117 145 158 133
559 500 454 398 303 260 227 206 193 200 154 118 82 60 113 166 161 158 127 125 169 195 203 201 190 170 146 126 104 87 61 -4 4 -19 139 66 45 76 111 119 116 125 144
603 539 407 323 248 192 174 153 152 146 144 165 171 139 204 250 205 170 148 170 162 168 181 185 170 152 129 110 96 86 63 44 43 48 104 206 108 75 61 97 106 119 158
510 420 234 206 202 204 176 158 150 159 164 175 181 204 222 184 143 159 180 192 190 190 189 171 150 131 113 102 93 76 58 41 40 36 64 133 193 152 66 65 75 150 170
154 215 197 179 184 172 158 155 170 170 174 178 179 190 176 144 142 153 188 195 203 185 164 151 137 116 101 92 86 69 57 39 39 55 70 4 99 149 163 84 71 163 129
188 175 168 166 153 162 178 164 177 178 170 177 187 187 182 157 163 190 190 194 175 157 149 134 115 105 96 92 79 65 60 41 53 32 51 75 84 104 82 117 72 135 132
148 149 146 156 165 176 158 163 189 180 196 189 179 173 178 181 194 193 191 175 159 147 124 111 101 95 88 78 79 73 52 42 23 28 54 76 78 90 61 61 137 87 121
141 152 162 169 174 179 168 208 184 175 181 185 188 181 178 184 186 184 175 161 139 121 103 98 97 84 82 78 62 49 46 38 46 43 44 40 99 124 89 33 70 52 106
136 153 172 178 184 185 188 187 204 210 210 205 193 188 185 182 192 190 159 136 121 114 99 82 80 74 62 45 46 55 62 40 28 -2 25 60 101 122 93 67 33 109 74
161 164 170 165 178 198 214 222 226 222 217 207 203 190 178 182 173 156 143 125 115 97 70 75 74 60 53 63 51 40 47 63 66 49 69 71 95 101 76 70 44 68 43

GFSGL_con_3kmhel_069.txt.gz
Helicity
191 182 210 300 296 348 391 344 227 314 346 428 368 386 383 385 376 360 357 336 290 313 277 193 150 184 164 146 160 133 156 209 249 244 202 170 183 171 171 203 197 248 263
238 201 241 424 429 333 322 327 354 316 363 370 334 322 330 333 348 340 319 305 326 272 195 153 184 122 149 149 138 134 161 155 225 206 230 233 225 205 232 235 229 280 316
177 141 330 423 327 291 176 309 468 402 355 297 295 294 309 316 360 378 324 293 215 166 226 198 101 162 142 146 155 166 152 146 202 256 249 293 263 250 243 262 300 247 231
163 190 425 474 414 403 379 342 305 292 338 323 300 335 362 346 321 331 288 254 265 215 173 164 130 119 119 129 126 135 155 203 229 281 282 299 322 290 330 353 397 378 304
459 498 467 446 376 347 325 298 315 307 335 372 390 365 326 307 287 285 287 270 236 159 150 113 109 107 92 106 137 165 202 229 235 236 275 340 381 369 377 357 360 352 323
457 459 415 369 321 301 289 298 327 348 359 340 323 312 317 302 286 314 283 238 182 151 126 126 123 110 112 124 168 213 207 242 257 285 298 318 318 439 384 345 326 309 289
403 359 336 293 283 284 324 332 341 302 283 297 293 284 296 277 259 227 192 168 154 148 133 134 132 167 195 177 154 131 116 131 166 216 239 254 271 326 351 297 245 250 296
354 297 269 284 320 319 297 274 272 269 252 241 270 270 246 229 170 173 174 167 163 177 188 185 175 155 141 148 122 111 121 127 150 176 224 240 267 273 288 216 177 225 262
285 277 271 252 235 224 240 240 234 247 234 229 204 227 297 284 304 248 224 225 220 205 166 148 157 159 171 193 168 151 145 136 146 143 164 180 196 176 180 191 223 250 232
237 225 201 215 239 248 243 213 185 184 188 191 252 302 313 309 289 256 238 209 204 185 159 145 155 156 157 165 167 163 152 148 157 159 170 160 158 161 127 171 194 218 229
271 258 284 273 273 239 205 182 169 214 284 355 370 270 272 272 277 264 230 184 169 149 140 141 135 146 141 136 147 160 168 169 158 169 172 160 147 150 136 154 168 182 211
327 322 307 279 255 226 213 212 262 314 319 308 314 338 299 293 278 273 249 213 179 149 148 132 130 138 138 145 153 160 190 180 178 173 171 173 174 162 139 106 124 158 183
378 337 304 293 330 296 309 349 353 326 307 311 326 349 319 297 282 280 252 212 190 154 137 144 150 148 150 145 157 165 155 167 177 174 153 135 140 180 139 108 86 119 157
416 405 444 473 456 476 450 416 407 402 407 366 351 343 328 275 224 185 171 151 170 162 158 171 169 161 131 130 133 136 144 153 166 164 130 123 68 125 136 98 42 206 250
510 512 515 540 535 532 481 380 404 415 332 326 290 247 239 219 194 176 167 154 147 140 141 166 180 155 149 131 128 137 138 136 140 142 135 121 87 93 110 101 106 204 191
638 640 629 549 492 453 433 454 427 328 283 225 201 184 164 149 167 172 160 158 165 175 182 190 176 160 143 132 131 133 126 128 116 99 91 86 115 56 64 41 107 174 75
654 594 581 578 532 434 387 355 348 257 202 180 167 146 114 128 141 149 168 169 190 226 197 191 180 164 130 144 146 138 132 116 90 75 39 19 92 134 40 96 73 64 99
690 637 579 572 557 517 460 419 285 180 183 194 110 93 85 111 116 160 139 124 158 174 181 181 173 159 139 153 152 138 118 94 81 70 54 -19 13 75 180 77 87 76 104
590 521 530 474 392 309 262 253 249 251 232 204 170 147 203 163 176 172 169 200 178 176 180 187 172 163 168 163 145 128 110 91 76 64 58 40 93 69 163 232 109 93 109
588 398 249 229 234 244 234 226 229 225 218 209 210 204 199 180 153 138 186 208 205 188 176 160 151 178 173 145 130 112 108 85 76 72 66 34 29 65 140 217 200 93 99
240 227 227 205 193 180 183 198 201 199 205 216 221 188 176 174 151 162 182 185 173 163 149 146 158 160 140 134 125 126 95 89 83 63 54 25 29 57 114 216 209 175 59
191 175 165 162 164 162 154 151 174 193 216 235 231 211 208 180 176 185 187 178 154 143 141 154 147 137 134 140 119 108 98 84 74 60 48 52 45 60 64 112 151 132 142
126 127 126 118 124 143 164 192 212 216 209 216 218 216 215 219 214 208 184 159 154 154 142 133 129 143 120 110 117 95 79 68 59 62 65 55 39 85 132 146 123 102 106
99 115 136 153 159 174 189 198 205 219 230 227 225 227 230 221 223 205 176 161 146 131 115 122 130 108 104 89 83 77 71 71 76 61 35 19 22 102 109 126 103 100 103
122 144 162 179 190 197 205 216 220 223 227 247 244 229 216 206 198 203 177 158 147 134 138 110 94 93 86 77 75 63 62 48 54 40 44 37 31 101 115 122 142 104 103
171 182 187 192 205 214 229 237 244 242 233 219 211 205 193 198 183 164 154 134 142 111 73 71 79 83 79 76 64 51 46 40 25 31 38 35 32 85 100 109 118 98 80

GFSGL_con_3kmhel_072.txt.gz
Helicity
212 202 175 167 175 234 283 306 368 322 265 159 147 257 325 366 383 350 328 315 266 311 226 242 250 232 178 186 178 177 165 192 219 205 205 178 187 153 140 157 176 230 256
262 235 200 192 169 337 369 391 332 209 226 93 265 381 385 335 339 318 363 314 295 275 287 238 230 174 205 183 191 182 170 180 238 210 219 205 208 189 212 207 215 249 304
418 279 233 380 364 397 405 267 234 256 96 221 293 310 314 313 341 336 314 302 269 280 267 208 224 232 200 200 163 157 175 177 188 239 197 225 228 227 221 218 243 254 304
367 321 360 342 304 309 400 467 386 346 357 349 318 314 311 335 342 318 271 339 305 268 279 200 219 142 171 171 179 192 182 192 183 187 183 199 222 199 251 286 296 311 287
409 425 380 271 245 283 366 430 411 401 367 362 352 367 357 343 326 342 305 248 275 278 264 241 191 175 172 225 213 215 226 207 205 215 213 216 231 250 260 263 332 323 370
500 427 382 392 397 362 358 365 376 367 372 379 398 406 383 325 325 342 344 345 324 280 280 229 229 300 269 245 242 225 212 222 210 221 243 245 241 255 290 290 324 338 359
360 366 401 435 447 392 363 360 326 352 374 390 363 341 339 344 319 321 324 328 307 268 244 255 271 250 217 190 184 172 162 167 164 183 224 238 225 242 249 253 270 305 318
361 357 383 406 388 360 335 314 330 334 307 324 341 345 354 323 312 294 301 290 295 296 275 246 221 216 204 184 170 163 160 155 173 194 213 207 210 206 232 236 245 245 249
361 404 392 366 352 313 294 290 304 336 349 342 342 370 362 295 249 282 300 296 290 259 232 235 216 221 226 225 192 180 170 164 158 152 140 127 121 119 132 208 225 242 251
328 308 291 286 262 262 272 289 283 288 326 356 376 334 325 376 380 337 285 259 290 269 252 237 250 224 212 203 184 170 166 155 145 138 125 111 98 122 120 203 211 203 209
272 276 273 239 243 266 276 251 280 333 356 350 375 390 427 390 367 337 298 294 254 245 240 223 192 180 176 184 197 178 180 174 151 154 147 144 145 130 159 191 175 185 158
333 316 277 263 264 248 252 286 317 334 361 383 449 469 428 366 322 305 285 257 234 218 200 171 154 164 176 195 197 210 210 181 172 162 152 147 151 149 144 137 131 167 154
339 302 289 298 291 284 305 314 326 348 378 390 405 406 395 369 323 305 272 233 204 168 145 137 145 170 193 176 204 221 199 187 170 168 165 159 165 152 123 119 105 140 113
340 350 364 411 455 459 424 380 376 371 386 374 359 355 350 315 276 230 196 163 166 142 127 143 161 163 167 171 165 176 174 165 173 175 175 162 146 153 127 120 121 156 129
452 440 465 484 500 547 582 515 474 433 359 362 375 334 321 304 236 182 196 189 159 133 137 150 169 174 169 160 153 157 151 162 172 179 177 173 149 147 112 88 33 47 141
554 531 523 542 542 529 534 560 556 447 410 353 291 245 253 234 256 236 223 185 172 189 153 156 154 147 142 149 147 144 147 156 170 170 169 163 148 116 98 64 77 70 181
649 604 608 596 572 515 473 454 464 431 371 313 281 280 262 236 267 260 245 177 146 147 149 152 146 150 134 151 148 151 148 148 151 161 147 146 129 95 76 32 69 34 76
869 839 749 704 629 577 573 546 438 340 268 240 185 206 236 235 216 209 168 134 150 165 172 178 177 162 160 164 164 161 153 145 155 147 136 133 115 100 60 14 76 87 12
764 628 535 518 522 463 381 338 290 245 245 235 212 221 211 175 166 155 148 138 156 175 182 184 165 166 167 170 164 166 159 156 156 163 146 141 118 99 76 27 60 138 180
435 423 388 367 339 319 280 261 242 227 219 211 201 183 187 194 185 169 160 160 177 186 176 169 161 168 170 166 168 159 169 176 155 137 127 109 106 95 79 71 111 148 169
340 323 302 262 223 204 195 189 178 173 178 191 202 198 197 194 196 194 189 186 187 187 180 178 176 166 159 162 155 185 173 168 146 113 99 89 86 79 75 57 49 135 173
198 177 168 170 165 165 162 155 171 184 194 200 205 209 237 226 217 208 203 204 188 172 161 157 157 154 156 177 175 165 152 132 115 101 82 73 65 56 44 62 88 92 172
149 145 138 137 136 151 153 170 190 197 206 218 224 234 239 235 232 243 239 215 197 190 176 167 167 178 145 136 129 135 118 103 89 73 63 64 52 53 66 67 94 103 126
118 130 142 148 157 163 169 181 192 218 224 231 239 252 256 241 231 220 209 199 192 178 157 162 162 141 136 135 125 114 96 91 78 66 50 55 47 54 58 59 129 121 103
157 164 171 170 176 191 209 223 234 253 246 237 237 240 230 222 221 206 200 174 152 161 157 143 128 121 114 110 97 85 78 59 55 45 53 39 40 50 62 49 102 122 123
155 157 166 183 203 211 225 237 254 267 275 253 236 219 201 191 184 180 151 143 135 118 94 101 108 111 105 89 76 65 64 61 58 44 27 20 32 50 60 49 88 91 122

GFSGL_con_3kmhel_075.txt.gz
Helicity
176 136 112 101 113 116 107 148 163 194 180 164 168 134 135 173 141 187 273 333 326 299 291 273 224 301 282 301 270 230 208 238 235 225 177 151 187 158 145 171 181 212 216
308 253 172 107 231 202 226 273 258 423 222 140 150 187 85 61 116 184 279 302 303 291 303 329 250 320 304 274 255 172 226 242 261 223 200 206 182 158 167 166 160 183 221
469 309 247 173 202 287 339 278 187 486 144 119 164 211 163 155 225 305 355 340 307 308 299 270 302 308 274 213 225 274 235 237 247 244 221 178 156 153 156 147 145 153 182
500 389 350 191 232 402 410 327 289 281 114 155 188 212 216 230 291 351 328 346 345 323 263 277 283 291 266 244 261 225 234 232 205 209 198 189 176 158 171 181 163 179 188
410 368 340 340 261 320 320 286 280 311 342 373 369 305 298 298 323 333 327 330 352 375 395 314 356 314 393 293 270 257 235 238 233 217 190 183 169 164 168 170 201 194 218
443 430 451 383 288 263 298 345 379 435 453 414 348 297 310 313 310 333 367 391 391 317 379 407 378 385 313 369 338 290 235 227 210 189 181 175 166 164 176 192 213 221 238
416 435 391 370 304 305 340 342 322 326 334 330 324 349 366 354 335 342 396 410 423 418 423 383 377 346 321 276 252 215 201 184 166 171 187 185 192 186 189 184 197 226 242
339 356 357 360 344 332 336 312 303 314 312 312 345 350 348 335 339 366 420 432 438 442 414 361 321 300 271 235 241 230 210 197 189 185 180 183 180 160 174 177 184 193 218
292 269 255 259 302 339 343 334 316 321 323 327 329 356 359 347 374 399 410 404 392 360 317 278 249 257 254 236 212 214 194 178 159 171 157 126 114 122 140 182 182 210 211
258 255 262 292 303 299 281 273 274 289 331 375 415 414 411 415 374 366 357 348 369 348 292 262 277 236 222 206 195 192 194 180 172 157 151 140 122 125 109 152 167 196 237
273 272 274 255 257 253 268 271 312 383 432 467 491 473 471 446 438 395 349 332 319 313 295 269 232 213 206 202 219 207 200 180 156 137 124 126 127 133 139 156 172 177 201
298 289 266 254 247 256 293 332 377 412 455 451 466 513 486 458 455 432 377 343 299 286 262 215 190 201 201 217 211 196 193 160 128 117 121 121 130 129 135 145 142 147 186
278 282 297 318 320 320 360 388 408 396 397 424 431 438 424 415 417 418 382 333 287 228 187 173 180 179 190 174 175 182 153 138 133 130 124 130 126 126 116 142 147 137 130
361 386 365 361 387 417 423 396 397 410 413 413 414 407 382 375 366 328 294 240 213 184 192 230 199 201 196 176 163 172 157 142 133 133 134 131 129 127 142 151 151 138 114
353 354 346 344 379 417 454 410 432 397 360 378 373 367 391 386 329 287 294 313 308 253 225 232 250 251 246 207 183 164 144 143 149 148 141 148 146 146 151 146 148 127 107
300 295 316 359 390 428 483 586 644 571 565 518 481 484 485 448 427 391 370 293 249 246 267 293 267 236 205 184 174 163 152 149 145 141 150 150 157 157 157 132 124 125 83
405 422 454 488 495 498 515 512 479 548 571 550 458 354 304 318 337 310 280 284 245 264 240 224 211 189 168 177 169 152 144 129 132 144 149 151 159 155 171 137 108 86 70
614 653 637 594 537 461 388 358 351 339 327 305 275 229 212 209 256 278 270 219 191 199 207 219 208 183 167 167 160 155 147 143 145 155 155 149 166 175 163 135 113 67 29
660 521 439 386 332 308 320 326 302 285 277 257 227 224 213 254 240 196 156 120 126 148 163 168 165 166 169 160 154 151 143 139 159 180 178 167 176 165 141 128 95 55 32
440 372 299 263 266 330 342 300 265 241 225 210 211 199 186 196 181 162 146 139 153 164 164 164 170 177 171 160 153 153 164 179 178 175 173 166 167 151 126 101 79 54 45
284 278 279 301 328 279 234 212 194 188 183 182 184 201 223 210 208 209 213 207 203 194 196 197 187 173 162 163 169 178 172 168 172 180 155 148 130 124 101 78 59 66 59
226 241 251 214 175 170 161 159 167 174 186 194 203 226 249 227 232 226 221 219 210 201 192 179 180 172 162 159 162 163 164 165 155 150 143 115 97 89 81 74 68 60 66
176 153 145 140 130 135 149 161 175 192 202 209 209 211 207 204 214 229 236 225 209 207 190 189 180 177 168 166 154 144 140 135 132 112 100 88 78 73 80 73 61 65 65
121 133 138 146 161 168 175 193 196 207 192 190 205 205 212 218 221 220 214 204 194 178 167 153 147 130 127 128 135 135 121 112 97 85 74 70 71 76 77 68 66 73 90
120 124 137 146 158 164 175 183 188 199 200 200 190 191 202 213 212 204 181 147 142 130 121 117 116 105 100 105 106 99 87 68 68 59 62 52 70 80 84 66 65 63 88
115 126 129 136 146 147 158 169 173 172 173 168 177 181 167 151 132 118 109 98 93 86 76 85 90 91 91 86 82 66 63 62 57 52 54 51 72 84 59 56 61 52 87

GFSGL_con_3kmhel_078.txt.gz
Helicity
164 122 94 54 13 17 34 20 15 44 81 99 145 207 175 138 181 297 182 150 174 198 218 257 325 287 297 282 338 292 325 338 288 224 193 199 160 129 129 168 151 154 157
247 182 137 117 111 146 149 52 81 79 153 212 223 169 201 276 283 238 139 212 95 173 214 315 290 322 298 336 348 326 318 305 265 218 193 178 171 140 133 127 129 133 149
418 365 153 73 -32 8 140 175 106 143 170 287 160 257 106 155 202 151 123 103 137 198 317 320 319 231 294 381 285 310 308 250 208 253 212 195 195 150 142 126 123 126 127
450 457 360 243 -0 -37 12 170 267 266 238 212 218 231 208 129 151 177 170 180 232 285 298 274 266 361 373 236 274 298 308 274 262 269 238 205 177 149 139 135 118 105 108
381 384 386 303 214 146 166 188 203 245 247 220 216 215 229 184 183 205 197 264 290 299 348 328 365 404 425 360 343 348 305 312 270 237 221 211 190 170 155 132 134 114 105
341 330 289 278 298 267 255 250 214 232 266 264 255 253 214 221 173 212 269 288 318 307 401 520 516 500 468 411 464 341 319 252 229 225 209 190 177 161 134 127 126 119 101
298 311 311 324 301 277 231 204 222 257 303 310 287 274 261 238 237 281 337 358 392 457 425 373 488 342 382 363 347 300 293 258 216 194 191 174 162 131 127 128 127 136 149
314 322 299 284 269 245 223 222 254 288 261 238 232 248 268 279 310 401 437 451 437 434 408 370 325 378 364 314 283 294 262 235 203 172 155 146 129 118 121 124 123 131 149
274 278 245 206 203 216 235 249 280 287 273 256 245 256 306 314 336 386 422 429 452 430 395 372 339 325 301 262 285 273 260 234 201 214 189 158 141 122 121 156 154 170 168
237 228 214 217 220 232 266 272 284 305 346 357 393 368 378 360 344 346 346 362 387 361 356 335 315 294 289 258 240 237 253 226 212 194 175 164 165 145 137 155 159 177 185
236 240 250 253 260 263 289 288 319 343 358 394 436 460 460 415 403 371 348 331 320 347 347 333 289 262 213 193 178 192 202 177 232 199 175 160 164 179 159 149 151 168 183
231 252 272 280 273 275 324 338 323 341 399 422 450 472 478 461 454 452 426 362 297 332 324 288 270 250 222 219 202 210 193 215 238 243 244 197 181 158 129 129 127 137 152
277 281 285 303 306 285 292 300 335 356 381 385 408 420 421 409 377 374 400 409 384 352 321 311 303 292 281 299 323 307 277 236 268 242 185 169 147 126 111 111 114 111 128
277 279 269 284 306 308 301 291 309 329 361 358 351 351 364 388 416 422 422 410 406 377 333 316 318 326 316 289 275 280 274 240 185 179 177 162 136 120 123 113 126 135 140
221 195 209 244 291 338 385 346 341 352 317 360 398 408 426 419 402 346 340 341 301 285 302 286 280 261 255 254 266 260 223 202 204 208 179 155 145 139 128 112 129 144 151
298 291 285 315 333 356 362 479 518 419 429 405 383 359 357 330 326 300 284 272 264 237 218 221 237 251 260 266 260 258 247 228 201 178 174 169 155 135 128 128 143 146 166
379 353 390 402 386 382 379 330 317 349 352 331 322 295 266 242 276 300 300 289 220 214 200 197 209 222 237 239 238 228 212 190 171 163 159 144 140 143 159 159 156 152 157
477 496 463 437 375 323 290 273 239 226 229 253 300 272 263 278 283 273 265 217 199 202 188 189 195 202 206 214 206 198 181 161 142 150 167 167 169 163 164 164 156 162 129
448 428 415 415 403 359 304 274 255 257 267 275 243 261 278 259 255 247 224 180 171 173 190 194 192 184 194 184 168 161 171 165 165 174 174 169 174 165 157 154 143 116 96
515 512 451 368 306 273 250 242 246 259 253 238 240 232 210 213 202 199 201 202 213 222 221 209 210 211 192 189 187 181 176 168 167 177 181 174 153 155 149 133 121 98 85
382 332 273 235 223 211 214 223 204 194 191 200 212 235 260 231 241 248 249 251 249 243 237 245 225 214 204 197 190 187 182 178 169 170 161 146 149 137 119 105 93 69 46
207 194 193 193 187 187 183 177 180 193 208 212 216 243 268 236 236 226 217 223 207 207 205 212 204 195 183 177 170 164 158 148 142 133 122 117 105 98 99 90 75 64 43
163 157 150 146 144 161 175 183 189 191 199 212 208 198 186 182 204 209 212 205 194 186 179 172 160 153 140 133 127 120 115 107 104 100 98 93 87 84 80 74 71 55 48
120 126 131 135 139 149 162 175 174 183 162 159 176 171 176 167 159 153 144 131 121 118 108 104 99 86 82 79 85 87 84 88 83 75 65 68 64 65 73 87 85 59 52
111 116 129 129 134 125 133 136 143 149 143 136 131 127 120 118 115 100 88 80 70 64 57 59 65 58 48 53 54 53 55 47 55 50 59 54 51 52 72 93 77 47 43
101 111 104 98 100 99 104 101 101 101 105 100 93 82 73 70 67 65 56 49 52 51 51 61 63 60 53 54 52 41 41 43 47 41 60 62 61 63 64 37 46 44 54

GFSGL_con_3kmhel_081.txt.gz
Helicity
79 66 60 50 30 6 -21 -33 -26 -18 -10 18 39 57 75 96 135 173 162 169 80 144 231 130 118 150 217 261 327 334 313 300 268 338 282 308 271 135 155 171 200 203 187
149 140 117 104 91 83 76 83 60 1 47 11 32 55 92 145 156 163 217 240 219 175 210 278 142 231 254 247 273 268 323 323 360 311 292 238 219 164 214 158 188 190 173
199 202 122 86 68 45 77 52 56 43 30 43 71 83 57 106 130 197 267 143 219 184 161 180 214 278 245 326 379 333 323 329 380 319 304 303 258 238 198 225 192 172 153
225 230 178 127 121 24 -108 -55 21 47 38 54 61 73 111 144 139 194 187 232 191 155 184 197 283 265 287 331 302 374 318 324 378 279 313 334 259 203 203 218 201 167 153
208 231 202 159 89 -18 -10 -15 -9 43 41 55 50 64 91 152 159 200 184 201 201 239 246 261 271 289 291 383 317 294 416 379 343 317 308 257 225 215 211 227 199 188 157
165 170 151 121 103 37 21 6 20 36 37 32 81 134 184 218 213 202 237 227 233 278 356 379 414 482 465 511 476 443 385 299 306 342 307 238 210 206 225 207 185 177 180
138 140 129 104 71 53 47 81 73 64 101 140 192 242 254 255 228 228 246 254 295 339 376 418 456 443 489 403 483 467 354 378 357 281 237 210 238 232 212 172 147 166 164
107 117 139 152 167 213 197 163 172 180 177 187 199 238 262 243 258 295 368 363 396 415 400 385 406 355 320 377 291 271 317 316 303 234 279 246 203 180 150 139 165 188 170
200 228 261 247 251 208 197 211 227 229 245 252 266 272 290 304 307 320 337 385 433 438 418 362 382 377 307 249 229 238 247 242 201 234 234 211 186 172 162 186 214 235 190
244 228 245 230 239 251 249 254 259 292 327 355 382 347 335 318 308 306 296 305 354 352 343 335 295 268 225 205 229 226 222 246 234 203 184 172 170 202 161 196 273 188 182
243 281 289 255 252 258 277 284 305 328 382 404 432 423 409 340 327 311 296 264 250 263 264 259 240 213 203 233 258 279 300 265 261 245 247 251 247 220 258 249 250 229 216
314 346 316 276 257 261 279 279 299 322 357 367 400 430 429 429 426 410 378 336 288 294 306 281 252 235 250 265 268 262 255 244 277 286 240 214 249 260 248 236 207 194 160
356 343 307 282 257 243 262 272 291 298 316 322 357 399 414 402 421 441 440 435 406 337 293 294 286 261 261 257 250 224 178 166 165 186 218 202 190 200 188 186 178 143 135
273 259 263 294 305 306 295 277 277 272 297 326 341 329 306 310 306 303 310 317 311 290 255 231 196 194 213 203 172 183 199 206 210 217 200 176 176 183 174 170 172 164 155
288 271 308 329 352 367 386 337 330 302 245 273 282 273 268 265 233 238 231 225 205 186 158 161 190 208 211 212 205 211 214 219 215 202 185 184 186 193 197 188 177 170 172
272 271 285 330 328 347 409 485 493 365 324 275 259 228 262 240 224 243 249 238 213 190 202 212 208 206 204 207 209 212 207 202 213 208 205 202 210 213 207 191 162 160 178
308 325 334 310 294 320 317 301 329 372 379 335 283 249 247 271 307 321 309 278 243 206 203 187 185 187 193 198 211 220 227 230 215 205 205 208 200 215 208 207 201 194 178
466 458 442 384 329 313 293 288 280 272 275 267 272 270 312 328 316 286 252 194 189 191 191 194 200 206 217 231 235 237 232 220 207 210 230 227 217 220 217 204 194 181 168
447 461 444 428 408 385 347 318 263 231 215 219 240 293 275 270 261 257 242 206 205 215 215 214 219 223 233 241 240 228 249 239 233 224 215 210 202 196 189 175 161 135 125
501 465 429 391 353 306 240 208 200 211 224 226 222 203 181 177 195 205 214 214 215 225 233 242 247 240 228 233 228 221 210 206 203 196 193 178 163 152 143 129 111 99 86
356 343 305 249 213 185 183 193 187 183 182 192 215 230 239 209 213 224 224 229 228 222 211 200 206 200 193 194 187 187 179 168 158 151 140 125 113 104 95 84 76 68 58
189 174 176 184 180 192 180 165 162 165 172 173 172 198 219 201 200 197 192 182 166 159 151 159 148 140 132 126 120 113 110 106 100 92 88 83 77 73 69 65 61 51 37
170 168 162 151 140 141 144 150 156 156 157 166 173 178 182 177 167 166 163 148 136 128 121 111 101 88 78 72 71 69 65 62 62 62 57 56 55 53 51 47 44 39 27
118 115 115 116 120 131 135 136 137 156 150 154 152 147 152 141 134 128 116 104 93 85 81 77 69 58 60 59 61 58 55 57 57 49 38 44 43 37 38 35 34 27 27
104 115 123 114 110 104 109 119 124 130 132 136 131 122 113 104 100 96 86 76 71 66 61 58 63 53 44 34 29 24 29 28 40 39 53 54 55 41 43 38 5 5 16
104 102 92 84 87 87 90 104 108 107 107 102 96 92 92 94 87 79 73 63 61 54 49 56 47 32 22 28 22 20 20 23 35 43 67 80 78 62 42 21 13 7 35

GFSGL_con_3kmhel_084.txt.gz
Helicity
42 33 23 26 46 51 44 33 31 3 -16 -23 -35 -13 12 36 65 94 100 103 121 119 173 170 149 272 293 302 464 205 210 307 221 349 190 333 267 319 311 287 221 130 164
52 49 41 32 34 42 59 82 93 83 70 51 33 14 12 24 61 88 104 147 131 165 193 249 196 248 242 317 344 314 215 272 393 358 498 349 365 279 287 272 160 202 220
68 80 68 45 40 32 27 41 41 62 73 47 58 66 72 71 71 60 74 134 187 191 199 180 117 232 224 270 237 251 278 372 450 551 384 342 361 380 297 184 208 243 200
89 92 80 72 52 39 21 3 18 40 -6 46 60 30 25 21 20 49 79 114 79 126 143 152 186 239 229 243 295 286 351 389 404 344 334 408 367 272 267 269 285 205 244
95 104 107 85 67 66 58 80 104 99 46 17 28 29 31 30 36 51 60 75 60 114 202 248 259 245 241 226 259 333 359 429 438 441 354 362 347 336 297 317 326 232 255
72 75 73 71 64 43 48 93 70 40 26 35 57 45 11 33 90 124 135 152 237 313 326 355 365 399 410 472 464 507 427 359 394 373 402 385 313 293 274 307 281 242 273
24 28 46 42 36 46 45 52 60 31 40 24 5 28 63 140 167 199 259 360 378 380 387 398 419 440 463 464 501 519 582 525 438 406 380 267 245 338 322 313 228 274 278
45 41 61 69 60 74 90 83 120 86 72 82 118 168 201 209 225 303 409 420 452 466 447 419 417 400 409 330 381 391 364 330 348 267 218 257 273 248 253 241 225 239 229
87 87 97 113 130 173 199 222 207 194 199 203 203 229 251 280 331 330 371 398 433 452 440 422 345 287 277 309 279 308 327 284 220 247 279 271 233 205 215 258 247 238 203
151 173 201 231 240 236 252 290 316 336 335 327 334 315 333 356 368 359 335 336 379 369 360 339 317 282 289 273 252 249 229 217 202 212 229 205 175 189 218 229 253 244 241
281 255 269 304 330 356 387 363 363 379 393 397 444 463 474 425 391 350 332 312 281 287 295 293 280 258 232 242 241 232 251 260 252 216 192 172 181 212 233 251 239 236 246
337 444 446 453 440 411 411 370 351 365 398 420 467 509 509 467 425 359 367 321 273 256 248 248 227 216 257 280 280 253 225 190 188 192 211 222 251 260 250 210 187 196 207
488 478 497 516 456 387 387 350 355 345 370 388 399 414 402 368 387 403 378 352 324 257 219 219 170 177 166 175 194 170 138 190 201 211 219 215 217 223 219 186 182 182 182
510 484 470 499 501 470 397 350 337 342 334 345 371 387 371 361 342 328 322 300 250 199 157 137 145 148 187 194 100 113 171 209 209 192 200 212 207 201 199 198 209 202 213
460 439 455 475 446 467 533 440 413 396 296 313 341 350 341 362 324 286 233 184 166 143 113 117 136 141 131 141 144 148 164 177 187 213 218 216 219 225 227 225 216 221 225
346 360 339 358 414 422 463 636 602 479 474 404 334 331 336 277 258 239 220 203 191 149 168 215 213 194 192 196 200 211 210 212 246 254 240 241 247 256 247 234 213 220 260
264 262 313 339 354 396 365 381 429 501 456 392 340 301 290 268 249 216 187 196 208 132 211 206 206 202 200 214 232 238 240 253 237 219 238 238 244 267 254 247 238 238 236
441 408 394 383 323 309 315 293 266 296 332 329 350 295 291 274 277 271 200 113 170 195 205 214 226 225 223 236 243 257 257 250 231 234 253 247 241 237 231 223 218 224 210
491 493 415 488 465 394 333 338 308 283 245 204 182 224 231 232 242 261 251 215 218 221 212 223 223 226 226 219 211 195 184 188 193 183 191 192 192 194 181 171 162 141 127
517 482 504 441 362 340 333 287 258 233 227 233 237 221 172 174 191 197 206 204 203 199 188 179 171 160 149 134 128 135 132 130 131 130 127 116 108 108 106 98 97 91 83
329 331 300 260 266 267 250 232 215 206 199 191 197 216 246 189 180 182 175 167 164 155 146 136 126 116 105 105 115 113 96 87 80 75 69 62 63 60 58 59 58 56 53
294 281 255 242 222 218 210 194 184 175 171 170 164 182 201 184 175 163 148 135 125 116 104 97 90 89 86 93 86 79 71 67 60 56 50 48 48 50 54 50 47 46 41
209 196 192 186 170 162 159 158 158 161 163 163 156 152 150 140 127 119 113 99 93 92 92 83 74 72 63 67 68 64 59 56 55 53 45 41 44 47 46 42 39 37 31
148 141 133 133 133 135 142 147 154 169 152 141 127 117 111 100 97 97 96 103 100 92 77 65 62 52 60 61 60 58 52 49 46 37 25 37 43 42 47 41 37 25 26
130 132 136 135 134 133 131 134 131 124 117 107 101 96 96 97 103 108 104 93 93 78 73 64 61 55 46 42 30 20 23 23 30 27 51 54 57 50 55 53 43 32 15
117 120 118 117 122 122 113 106 101 95 95 95 97 104 114 120 116 103 89 76 81 72 56 60 50 38 30 30 26 29 25 25 38 43 65 80 85 76 65 56 43 25 19

GFSGL_con_3kmhel_087.txt.gz
Helicity
88 77 57 51 63 62 73 71 69 66 86 68 19 -40 -75 -32 -2 2 48 63 96 115 136 151 158 182 202 249 301 312 311 396 335 427 392 241 288 270 242 333 298 260 278
108 92 73 70 55 41 45 57 56 38 29 42 3 -11 -29 -8 38 57 85 115 125 136 148 149 155 180 231 236 376 294 315 333 304 305 341 395 489 485 626 454 263 271 274
82 95 102 90 88 88 66 86 89 76 76 73 36 33 50 51 79 99 104 107 106 103 112 137 157 249 262 252 291 284 266 308 331 365 465 519 594 579 440 317 394 318 269
83 93 100 96 88 76 66 66 79 79 61 58 51 54 38 25 36 45 68 104 93 92 156 241 223 274 262 231 248 259 310 333 364 394 413 428 462 399 397 359 366 328 283
82 96 112 110 79 66 74 100 105 116 84 63 97 72 31 64 90 100 102 116 140 194 198 251 278 303 279 268 287 300 319 347 356 385 458 433 398 471 356 383 402 413 384
130 119 111 103 79 97 123 113 134 149 131 123 117 114 89 126 126 103 112 120 169 248 371 441 429 418 448 453 465 443 357 349 410 440 469 429 399 454 426 431 448 282 311
103 117 110 104 94 88 95 115 154 190 182 178 160 138 115 123 227 218 221 259 308 375 395 397 390 404 412 390 484 464 486 452 416 398 398 389 402 398 340 349 220 216 295
92 72 62 78 79 80 94 116 153 175 192 216 254 289 288 262 222 294 337 367 423 418 405 395 395 405 405 386 383 496 491 413 371 338 294 287 325 269 184 207 266 324 317
61 55 62 84 89 100 129 157 167 359 594 501 378 320 294 313 320 340 374 392 420 427 422 421 396 402 426 397 315 302 219 266 224 252 279 222 233 283 297 289 233 236 218
70 65 84 113 119 131 197 502 634 612 587 524 492 435 394 386 343 301 316 354 403 416 441 426 391 326 283 278 225 214 194 199 172 159 173 155 150 146 149 175 204 247 268
76 99 182 226 291 483 517 481 538 580 600 586 570 509 465 398 368 352 335 346 356 379 371 345 284 289 300 320 278 261 238 203 191 185 183 172 150 152 170 176 226 282 306
645 599 661 663 575 460 458 518 517 533 565 561 578 592 545 493 431 439 449 419 332 324 289 249 244 282 312 300 277 294 276 226 214 182 187 186 207 256 273 280 276 245 225
512 468 531 551 591 565 545 507 494 513 551 536 528 532 527 503 514 493 416 363 336 311 266 262 286 293 236 220 198 181 149 186 197 198 203 204 212 228 221 198 195 203 224
665 645 665 718 752 730 551 532 571 445 426 489 454 455 473 524 466 388 327 298 282 252 201 167 150 133 146 100 49 77 157 169 157 150 183 213 215 207 205 205 223 229 233
406 433 507 609 609 620 713 689 543 521 386 388 404 420 407 473 426 360 278 232 197 137 80 54 87 130 153 153 145 147 142 149 148 175 200 181 175 192 201 223 238 235 239
397 448 484 505 453 471 480 577 605 553 606 571 483 487 394 317 275 256 228 210 168 143 127 144 141 158 192 192 188 189 182 181 206 190 174 189 211 220 228 231 219 231 249
354 304 307 328 374 368 389 456 488 520 527 491 433 415 347 270 214 179 152 167 217 130 165 177 184 182 166 170 189 197 210 228 206 197 197 206 199 190 206 201 190 192 200
373 410 412 378 335 325 339 329 338 378 419 449 451 368 326 273 230 192 88 46 140 184 173 171 171 177 183 187 196 193 179 176 172 171 156 144 154 143 133 129 129 139 149
457 441 408 432 385 423 426 398 331 252 288 277 227 168 119 177 235 286 270 203 181 174 173 173 165 170 174 178 176 153 143 136 131 118 116 102 97 82 69 70 70 61 67
512 464 380 367 320 335 292 237 215 218 248 242 248 235 156 160 154 156 172 178 177 172 163 169 173 169 164 145 129 116 104 103 100 90 88 75 68 61 57 51 49 50 48
430 418 383 360 339 276 280 281 244 213 208 207 213 232 251 160 144 151 151 159 159 156 150 150 147 139 124 115 102 95 91 83 80 75 65 58 65 63 53 49 50 49 46
351 329 306 296 260 241 216 195 179 169 158 152 156 182 202 175 160 153 146 140 138 138 130 128 116 114 101 91 79 87 80 70 62 62 59 58 55 51 50 48 48 52 47
254 236 226 212 202 206 197 178 165 162 161 158 142 143 150 149 148 152 145 136 131 116 107 94 84 77 74 78 74 59 59 56 57 59 49 47 51 54 58 55 55 53 47
210 202 186 177 160 145 144 144 157 173 153 147 143 138 138 136 137 134 125 114 96 83 70 71 63 63 74 67 56 53 45 45 45 44 37 54 62 56 58 58 58 48 56
159 155 147 134 124 122 127 138 139 136 137 133 131 125 117 114 108 104 94 81 77 72 70 61 62 60 50 48 37 28 28 33 43 44 54 46 43 32 52 72 69 70 61
133 128 122 120 125 125 126 128 131 128 125 115 110 106 100 97 95 85 85 83 92 70 49 59 49 44 38 37 33 41 41 33 37 29 40 50 60 65 70 73 68 87 72

GFSGL_con_3kmhel_093.txt.gz
Helicity
214 200 199 194 179 149 130 119 89 75 100 71 34 -15 -42 -40 -34 -34 -62 36 10 -51 43 71 0 80 113 144 171 197 210 265 241 217 255 258 302 280 235 230 206 253 241
161 203 178 187 200 195 173 133 108 62 45 11 -36 -53 -46 -55 -48 -26 -22 2 -7 -27 -5 105 61 143 151 163 195 194 228 266 278 235 275 284 278 238 239 244 237 205 246
146 154 167 181 157 172 149 127 116 95 61 41 -19 -62 -71 -52 -41 12 51 45 19 41 49 109 105 143 140 190 240 234 256 278 296 255 230 311 334 331 364 298 261 351 330
186 184 161 158 204 162 119 125 117 101 107 90 65 2 -5 3 44 57 59 77 96 95 118 146 151 180 183 216 243 239 246 279 277 264 300 321 273 325 362 244 263 364 394
203 183 180 134 106 128 149 120 124 119 102 103 84 67 46 57 66 109 95 123 126 123 161 207 280 291 344 333 281 283 296 308 330 341 371 353 245 281 300 389 269 404 485
232 207 170 167 145 148 142 171 182 153 139 100 101 119 116 102 74 105 132 159 205 189 261 329 352 380 425 444 508 543 458 374 393 368 298 339 319 321 364 366 342 363 317
210 255 223 200 175 155 173 178 183 202 187 171 157 173 157 126 119 145 182 252 259 293 325 364 385 390 377 403 497 622 694 522 373 279 376 322 342 316 363 268 244 224 203
298 228 240 241 211 184 178 159 162 176 182 201 201 194 236 316 262 277 352 440 469 456 433 436 421 423 463 444 562 558 601 501 476 417 445 398 345 233 213 193 174 212 203
323 278 228 258 278 230 197 181 189 191 182 222 277 364 399 405 360 384 510 547 571 587 568 519 493 517 626 585 518 526 397 474 411 411 346 276 183 144 189 215 244 225 235
191 329 303 295 281 286 268 256 319 373 474 491 521 477 498 506 466 486 527 644 659 600 627 688 755 751 768 617 509 424 530 510 500 507 257 159 170 229 277 264 226 229 204
369 309 372 292 248 304 437 468 518 570 622 602 628 642 660 633 596 492 466 566 632 723 756 681 695 707 736 752 660 511 475 442 389 286 202 250 249 248 247 256 244 225 226
336 687 715 604 475 476 559 567 542 577 619 592 639 686 683 676 615 579 581 660 740 845 770 802 685 631 541 429 426 438 360 273 129 148 163 173 193 227 230 226 236 244 257
320 471 736 754 657 570 602 661 688 627 649 689 767 841 796 786 870 844 832 828 794 818 675 531 477 281 289 333 306 183 108 125 143 152 154 184 185 181 201 212 230 245 231
302 438 486 597 743 807 751 734 755 748 837 823 794 868 960 951 876 977 1044 871 524 649 443 371 188 165 96 88 84 133 137 154 173 183 175 171 182 187 175 171 152 156 152
208 306 380 463 614 713 776 782 910 918 818 861 928 1050 920 997 891 699 311 432 414 135 75 97 105 112 100 110 120 137 149 156 154 156 156 153 149 136 136 136 133 125 123
14 102 143 316 458 612 907 1084 984 848 976 712 908 868 734 544 388 237 133 84 119 165 181 170 168 172 165 156 136 127 136 130 122 121 128 130 133 129 130 121 117 124 149
-2 51 100 162 161 160 352 558 707 836 840 778 556 406 302 276 274 277 282 276 241 202 215 198 192 163 143 155 157 149 141 142 144 147 139 122 118 117 118 123 127 137 116
192 197 161 176 181 202 237 273 262 279 338 382 391 323 284 230 255 247 237 241 233 234 191 171 170 167 153 142 139 144 153 158 162 153 148 130 132 130 132 117 102 97 104
181 190 193 199 215 239 231 228 243 261 260 258 253 307 318 285 266 246 238 225 189 184 177 177 155 150 156 169 185 183 172 159 145 131 131 128 115 111 94 97 101 103 98
325 275 253 244 259 273 246 260 273 255 227 208 194 174 153 194 232 241 237 224 219 193 172 169 170 177 182 166 159 143 145 143 132 126 114 108 108 103 104 99 94 94 95
309 299 297 276 269 253 240 246 244 261 271 250 214 180 188 191 188 195 192 189 186 193 196 188 168 148 141 138 135 134 135 132 129 125 113 114 115 107 88 74 73 61 56
336 311 275 244 214 207 190 180 190 198 191 194 192 196 177 155 160 168 173 163 151 147 138 140 139 119 110 101 100 117 127 119 101 95 107 103 94 79 66 65 55 51 43
269 277 275 273 252 229 212 185 178 180 185 180 168 156 148 142 135 126 133 134 131 130 116 108 96 84 79 88 95 96 97 84 74 80 103 86 71 74 68 57 46 46 45
214 208 203 208 205 207 204 194 180 171 157 150 138 122 116 114 113 115 124 125 117 114 114 111 89 88 87 86 81 87 94 84 83 70 64 70 78 66 51 53 58 53 57
191 189 181 170 169 162 164 160 156 151 152 148 139 132 132 122 105 125 123 110 121 137 127 105 94 98 93 90 99 100 103 79 60 45 58 73 79 70 62 64 61 65 71
183 175 162 151 156 156 165 170 150 135 142 160 151 136 118 125 127 117 107 120 126 114 106 99 93 97 94 93 95 76 64 57 61 51 51 80 78 70 68 63 63 88 90

GFSGL_con_3kmhel_096.txt.gz
Helicity
188 185 134 131 101 50 108 71 94 99 87 63 83 72 30 -8 -73 -118 -87 13 93 58 33 43 57 68 109 117 110 117 146 212 199 151 183 196 209 204 217 229 179 174 150
203 202 150 133 147 143 69 110 101 107 94 58 41 30 3 -30 -60 -51 -27 15 40 -3 54 81 103 119 112 107 119 114 154 179 228 200 202 231 227 229 234 185 177 170 139
228 207 166 140 139 145 143 97 112 109 101 85 58 42 -20 -22 -31 -53 -16 36 68 56 76 108 93 123 114 122 135 141 155 181 244 260 240 259 292 270 222 208 267 187 186
204 221 189 172 166 109 97 115 132 116 96 94 76 31 -2 -31 -26 -10 9 43 76 99 118 146 119 131 137 133 141 150 177 218 240 216 205 315 317 277 208 230 241 315 269
191 190 199 172 173 169 122 93 82 97 103 98 86 52 21 17 16 15 3 -11 10 48 123 143 145 192 242 203 180 152 176 208 206 296 354 360 360 365 323 297 349 313 345
188 184 189 183 170 189 163 152 127 93 57 74 104 91 61 41 11 24 47 61 76 82 93 222 281 273 273 296 289 378 369 265 329 406 476 518 391 358 335 322 326 325 315
189 201 190 194 185 183 182 161 154 150 126 100 74 72 67 76 91 111 122 138 140 144 219 313 351 310 304 352 430 513 569 571 458 372 442 470 477 548 280 460 456 416 330
196 198 208 204 179 175 168 159 143 156 162 151 124 114 103 87 93 105 126 174 298 340 356 385 425 428 425 474 569 611 659 687 670 626 623 686 508 471 491 399 388 322 280
159 183 216 233 275 232 181 183 191 182 200 196 160 146 123 194 163 198 344 409 442 458 458 468 496 569 560 601 720 752 731 820 892 895 873 593 634 477 435 416 464 362 237
266 205 191 202 237 306 260 216 210 204 233 388 419 404 374 381 321 353 438 512 555 608 651 689 716 689 692 731 816 869 760 641 726 702 582 453 428 453 348 248 167 129 171
218 231 316 352 299 248 254 292 382 445 473 489 543 555 539 504 492 508 502 597 671 709 771 902 808 852 916 815 682 719 607 547 575 407 302 347 288 230 178 214 241 215 213
174 210 332 544 532 491 519 533 542 568 640 649 690 688 653 618 611 626 701 786 868 1058 1113 1102 1122 973 780 741 653 565 526 537 256 215 165 143 179 201 211 206 218 208 211
186 212 232 347 569 696 637 587 595 618 633 653 640 674 665 645 624 695 767 1034 1106 1134 993 916 804 849 745 680 417 314 255 172 153 154 140 147 156 160 197 204 216 222 223
152 147 175 268 362 493 585 653 710 637 721 815 762 771 718 693 666 631 779 756 668 687 647 628 447 298 282 198 191 194 166 160 143 110 115 138 168 192 193 189 199 222 222
129 173 135 127 176 305 494 515 577 712 646 837 957 919 916 940 744 591 390 351 351 272 228 209 252 209 203 202 179 161 150 140 133 153 172 169 166 177 180 172 172 160 151
66 100 164 193 193 150 212 262 388 374 496 402 650 580 636 643 677 492 316 241 226 199 220 197 202 199 174 162 150 135 148 161 144 136 140 149 153 154 143 147 146 131 133
23 45 85 118 150 185 253 366 530 496 532 519 411 374 315 305 293 257 273 271 237 238 233 207 194 187 166 152 149 147 138 118 121 118 122 127 122 133 133 139 135 132 143
117 139 130 144 148 205 242 271 305 369 392 380 375 330 321 271 246 234 225 260 285 282 241 213 206 196 176 161 139 127 118 119 118 112 116 128 129 122 121 136 133 122 108
160 162 181 192 190 199 223 256 283 301 308 298 298 367 315 296 302 282 265 246 226 224 211 214 191 186 182 161 144 128 117 117 112 125 126 132 125 109 122 117 111 105 77
286 299 235 208 215 231 254 279 250 252 271 252 240 202 169 205 249 256 260 240 223 201 181 177 168 158 148 138 131 124 137 132 139 136 131 125 111 104 124 113 96 80 71
344 328 271 250 249 244 237 247 232 233 225 225 215 198 217 228 221 216 203 202 182 164 154 146 141 141 137 126 118 121 125 123 110 115 136 132 112 114 89 73 77 71 64
276 268 251 235 223 230 227 215 212 206 193 186 180 195 213 191 181 172 168 162 153 145 123 122 121 108 92 87 87 103 119 128 124 118 111 99 89 83 82 81 82 80 74
259 257 256 242 211 207 207 189 180 165 157 149 138 138 142 142 140 135 127 123 126 133 118 100 105 107 94 95 107 102 105 87 73 75 87 88 91 87 85 88 84 83 73
241 232 211 201 202 198 192 184 166 157 137 135 126 120 110 111 116 119 122 121 129 138 134 126 122 117 113 105 93 82 83 78 68 65 78 101 92 83 91 89 76 69 63
206 208 208 196 184 171 158 143 132 123 116 108 114 108 111 126 130 129 132 130 135 145 141 128 108 96 90 92 101 111 89 75 80 71 73 74 88 88 87 83 72 64 60
186 192 179 164 152 131 120 117 119 113 102 94 95 98 102 110 108 117 112 115 112 102 104 104 104 105 107 91 83 90 92 96 90 69 69 75 87 89 85 77 66 76 70

GFSGL_con_3kmhel_099.txt.gz
Helicity
122 144 142 137 163 186 133 93 71 104 101 106 150 238 340 348 297 239 153 120 85 -31 57 75 59 52 50 23 83 81 120 147 93 41 94 119 142 150 151 169 175 167 157
98 132 141 134 166 163 144 111 129 112 110 108 130 145 152 242 264 170 129 106 -32 -80 -39 23 33 72 46 32 49 101 139 140 153 71 115 155 143 163 197 186 194 206 210
94 120 146 145 158 156 142 138 103 113 128 120 120 99 80 60 65 80 39 -91 -201 -166 -49 65 45 87 76 88 96 108 137 147 184 169 105 147 189 199 200 221 229 258 275
122 110 156 163 154 134 159 145 126 103 126 134 161 122 107 64 35 -16 -49 -106 -107 -65 21 75 41 78 95 128 140 134 132 146 162 156 157 161 197 233 273 266 275 329 351
122 122 120 166 164 133 133 167 159 134 106 125 118 122 124 110 93 54 30 39 57 61 67 55 58 78 111 122 152 137 155 160 163 167 151 290 343 394 419 405 398 370 358
147 138 121 136 163 158 135 128 150 159 145 135 122 86 90 95 70 83 78 81 113 115 84 120 199 222 249 270 248 241 237 172 167 188 240 353 423 484 492 496 429 547 440
143 165 154 150 167 165 149 135 134 160 150 140 132 118 99 87 62 53 57 60 68 83 99 151 242 241 258 316 338 381 418 436 398 325 384 421 430 514 459 509 531 511 530
98 137 138 158 164 160 146 157 152 142 155 148 135 133 101 83 106 119 118 130 139 147 160 195 226 285 305 339 387 413 405 391 372 522 665 755 701 731 609 559 529 575 472
140 114 107 153 172 171 187 194 180 180 168 154 160 155 131 115 121 116 148 177 266 268 269 275 269 300 324 344 514 587 644 698 834 919 994 937 870 801 718 621 661 485 480
178 171 186 192 96 178 174 213 233 229 191 205 196 241 178 125 197 159 214 340 392 416 415 425 419 494 591 664 688 713 776 653 644 860 756 767 718 725 586 478 414 291 144
131 132 155 199 241 254 167 218 200 201 295 376 437 445 426 391 402 374 344 417 507 583 551 581 583 650 762 873 824 738 591 742 664 600 583 512 461 339 325 185 174 159 147
247 236 223 199 214 257 353 442 504 500 519 527 527 571 542 522 466 511 562 596 673 872 855 897 910 900 859 723 710 639 707 383 469 438 297 217 182 163 127 118 133 132 154
173 207 230 266 273 277 311 405 484 505 551 614 628 757 633 486 454 513 597 752 960 1074 999 881 883 854 892 814 705 576 476 364 284 257 240 200 172 150 141 148 172 174 174
118 193 233 267 274 311 282 276 335 457 607 715 731 720 654 636 458 452 478 577 624 659 659 710 732 654 801 650 472 388 326 242 199 161 161 150 138 149 167 155 145 164 154
32 42 78 156 224 281 379 368 277 187 150 296 303 428 522 708 625 643 551 510 551 495 553 594 587 442 362 297 255 204 170 169 174 163 154 158 171 163 168 166 162 144 152
34 47 64 66 105 161 194 302 482 416 412 354 292 279 286 260 263 204 238 290 282 242 278 287 275 245 221 189 167 166 169 164 150 157 152 139 135 135 134 139 152 155 145
23 33 74 96 97 107 135 166 231 471 627 625 560 520 446 373 388 356 311 285 251 251 247 203 193 173 146 142 136 138 157 168 155 158 160 162 147 148 145 140 141 137 115
127 102 94 104 112 145 181 203 239 293 348 363 379 327 310 285 255 203 190 235 278 270 212 186 182 161 155 158 157 151 147 153 153 144 152 146 133 122 128 124 109 97 94
112 117 140 145 161 176 203 244 265 265 287 288 270 319 263 230 229 234 240 216 189 199 181 187 171 162 154 143 143 144 137 132 127 131 123 122 121 113 102 92 98 109 77
191 214 204 192 200 217 229 249 260 272 273 270 254 208 174 192 226 224 222 202 198 189 178 176 164 152 140 133 131 133 144 136 130 121 104 103 88 82 107 102 87 77 73
185 202 227 234 238 223 232 249 238 246 246 240 223 200 190 200 191 198 197 203 181 165 158 153 148 142 134 130 123 128 128 126 107 95 86 83 84 96 67 66 70 76 78
219 209 222 242 231 238 236 214 205 202 198 199 189 212 222 204 185 175 171 170 159 143 126 125 137 130 116 107 99 106 97 85 75 84 88 79 73 77 79 91 97 92 74
230 233 238 229 213 212 210 188 178 179 178 177 166 166 164 163 157 155 150 144 135 134 129 118 110 105 104 101 88 71 74 70 72 81 79 86 101 102 95 91 82 82 77
196 201 205 205 206 212 202 194 187 183 158 144 141 137 132 128 127 123 118 112 119 125 123 119 110 102 88 79 72 74 89 85 78 77 89 98 102 93 91 89 80 75 75
169 172 181 177 175 170 175 172 161 148 129 114 109 104 103 103 106 103 99 104 102 108 105 92 86 87 96 86 106 114 99 104 97 91 89 90 99 90 86 90 83 78 75
160 169 165 163 163 154 139 125 111 96 93 92 91 88 87 90 84 85 91 94 95 100 99 98 104 113 111 102 89 103 109 109 95 81 79 86 98 90 86 85 73 79 62

GFSGL_con_3kmhel_102.txt.gz
Helicity
206 121 140 139 137 163 127 140 169 115 133 138 142 192 252 353 404 437 595 455 225 166 176 134 96 61 107 106 138 110 103 86 51 52 64 72 62 68 101 116 113 114 126
170 118 114 126 133 159 130 120 174 187 130 106 117 122 150 263 370 358 244 234 209 181 79 200 97 29 50 90 98 55 78 118 147 55 85 71 61 76 104 110 127 162 181
111 107 95 91 112 120 136 125 153 171 173 152 155 189 214 196 195 225 275 243 183 172 145 62 -57 -20 13 73 80 74 76 101 133 126 101 111 104 128 139 152 178 231 290
66 83 94 91 92 80 113 125 137 154 173 169 148 150 175 201 203 190 184 160 102 86 10 -88 -108 -35 -17 47 84 78 77 112 109 129 115 108 130 170 201 217 262 294 331
91 76 77 105 114 103 109 124 121 135 139 150 155 143 145 121 128 121 135 116 101 75 -20 -73 -122 -36 33 81 101 105 128 157 152 153 152 136 191 236 229 190 264 391 536
84 91 83 87 105 115 114 123 132 143 134 137 139 156 175 153 119 109 113 114 93 51 -32 -74 -82 -5 95 210 200 251 251 157 123 129 163 236 290 317 291 312 352 383 360
108 100 99 102 93 116 133 138 122 130 140 145 144 141 155 169 159 150 135 125 109 78 48 54 75 137 203 256 291 348 348 337 285 216 190 244 274 299 341 454 516 578 590
79 118 151 140 134 128 124 121 134 143 159 160 151 147 138 145 156 157 164 171 157 136 129 134 155 187 225 281 319 314 280 259 237 320 408 450 451 512 539 574 528 580 590
193 64 98 145 109 113 165 167 157 139 155 174 179 172 152 141 164 162 185 179 154 153 181 174 182 249 289 353 463 479 459 430 487 621 751 783 855 848 683 608 634 584 431
166 134 121 106 89 74 68 158 212 210 161 148 158 200 178 146 152 160 190 207 220 326 353 333 284 336 393 477 596 685 729 670 674 719 690 742 759 780 764 588 401 404 412
151 147 150 150 132 119 128 129 156 195 301 394 413 376 336 330 339 366 199 229 350 456 470 506 495 496 556 605 653 691 649 642 610 638 569 598 585 511 489 493 309 209 194
143 178 211 237 217 197 215 252 318 376 400 436 469 434 377 340 261 258 367 567 594 482 522 597 656 679 738 685 700 580 705 662 587 557 489 505 414 317 234 157 125 109 96
132 178 224 259 229 208 237 280 289 379 471 497 462 469 455 461 473 457 357 511 587 514 354 460 728 586 654 685 590 542 560 419 353 348 371 190 154 99 84 84 77 84 119
100 134 158 196 235 277 278 299 312 297 264 254 228 217 217 175 192 257 238 459 694 871 746 840 746 616 610 595 590 489 418 346 273 181 163 103 100 122 132 129 124 94 119
44 57 69 93 150 214 278 242 226 261 218 254 286 232 267 270 284 326 326 379 373 428 433 520 489 427 392 347 317 287 216 170 155 117 112 103 99 113 142 132 135 107 85
45 59 57 52 72 95 146 284 495 422 417 349 317 263 334 348 379 451 529 496 431 370 414 389 337 264 233 195 174 166 165 155 133 122 121 125 132 131 124 121 108 117 123
69 52 76 86 89 91 107 158 248 421 495 442 369 313 306 289 305 311 330 305 238 232 223 188 171 149 131 129 120 127 135 132 131 143 138 124 111 117 120 129 137 123 126
126 169 130 95 106 143 154 157 171 214 267 303 355 270 265 246 228 190 172 205 235 232 159 125 108 103 109 109 109 111 118 120 128 131 135 129 122 124 134 133 129 117 104
110 113 114 120 134 154 177 205 223 246 256 247 224 282 234 227 231 225 212 173 158 176 162 167 148 133 119 106 102 107 108 110 112 115 126 141 138 124 124 119 106 106 93
163 184 175 154 164 184 193 223 243 247 249 248 254 214 160 192 261 245 227 194 186 171 159 159 140 131 123 112 108 106 109 114 123 129 126 126 123 116 115 109 106 110 103
175 200 202 195 205 203 197 199 185 197 217 236 241 227 222 216 197 206 204 207 173 153 146 138 130 124 111 104 99 109 112 112 111 116 119 116 111 107 100 94 96 101 77
183 190 203 214 213 228 223 212 213 211 201 195 194 228 233 212 193 191 183 170 147 129 109 105 115 116 107 96 86 93 98 98 98 104 112 113 109 101 93 99 90 77 68
186 192 201 208 200 205 213 200 196 193 195 191 180 190 197 184 166 145 123 114 114 115 107 105 105 110 101 97 91 89 91 93 93 99 107 103 98 98 92 82 74 74 79
175 179 175 176 175 182 179 180 177 179 163 158 153 144 132 118 113 111 105 105 110 110 106 100 95 94 86 87 90 95 104 97 88 87 92 89 94 88 82 79 76 78 69
151 159 164 156 158 155 159 161 162 158 149 130 119 105 96 91 98 102 98 93 92 94 93 90 92 104 104 114 117 111 99 110 93 87 83 85 89 80 80 80 79 76 71
151 159 160 151 159 156 151 144 137 123 110 93 84 86 86 93 90 88 88 92 90 91 95 92 96 103 101 92 82 95 108 103 89 80 78 79 91 89 83 80 78 80 68

GFSGL_con_3kmhel_105.txt.gz
Helicity
123 73 115 119 99 94 79 69 70 75 28 65 114 147 146 160 254 376 423 587 545 445 509 383 178 208 162 184 182 54 70 100 49 34 14 44 87 112 72 44 50 67 87
118 91 121 93 76 75 49 52 76 76 17 60 97 101 109 127 206 297 346 336 397 504 578 221 165 196 123 123 29 23 83 60 93 -23 48 103 77 23 46 60 64 106 165
117 112 122 71 64 51 23 36 66 94 60 39 95 71 74 107 155 217 274 268 280 398 228 115 169 148 88 119 15 23 84 72 50 18 24 90 105 118 97 65 93 160 176
117 95 90 70 49 52 23 24 52 82 98 82 102 98 99 126 172 201 193 192 171 109 92 135 110 135 118 -24 24 51 63 78 45 55 57 59 71 85 135 130 168 202 225
112 83 73 61 53 47 29 23 42 78 95 87 105 123 153 157 163 237 164 152 202 207 178 161 141 121 90 32 33 39 86 104 101 94 82 90 153 180 138 171 204 293 404
87 67 67 67 54 39 32 23 37 45 58 103 119 127 120 129 176 178 206 221 187 189 155 154 123 88 -19 -15 19 46 81 84 86 126 87 109 95 219 228 238 292 336 413
95 69 74 81 63 46 30 24 26 43 50 63 78 100 116 102 147 157 140 97 112 124 97 89 87 91 69 116 159 193 245 305 292 209 152 202 225 237 285 304 402 503 508
165 149 120 135 102 76 42 26 23 36 66 72 80 106 112 113 124 130 149 112 74 58 70 85 89 103 150 222 253 278 295 280 233 236 273 322 355 387 391 357 478 595 640
253 289 258 212 160 101 98 66 28 55 65 84 94 100 118 127 142 142 153 145 137 138 122 95 75 86 154 265 351 385 399 374 394 524 635 684 696 723 584 455 479 436 511
127 32 -17 -15 33 132 169 110 118 130 117 124 241 269 276 206 250 88 174 201 196 233 342 299 285 199 239 340 378 545 583 564 550 550 625 698 722 710 775 670 496 489 437
98 73 68 51 17 29 50 102 128 146 321 421 449 403 371 312 242 191 93 134 290 430 416 389 370 449 543 582 606 726 750 835 832 739 798 684 710 694 655 592 546 449 377
172 163 155 164 162 151 146 165 219 321 408 432 458 455 393 341 257 234 217 257 377 435 458 492 573 618 577 562 533 605 719 763 623 568 575 572 577 514 414 389 344 237 187
183 198 204 228 258 273 286 272 276 303 346 385 374 376 352 315 318 344 319 368 500 568 633 680 661 638 663 735 648 620 619 479 390 423 418 362 284 182 153 124 131 142 141
96 113 138 171 202 244 257 279 268 272 299 339 317 310 315 309 273 225 299 408 458 456 523 628 645 643 674 690 632 572 503 417 332 265 196 112 81 83 96 83 53 50 86
35 47 72 86 121 178 266 248 250 318 253 253 271 253 229 251 197 187 203 287 304 359 448 538 549 563 530 485 406 361 252 189 158 122 106 107 125 118 108 101 123 124 119
20 37 40 41 58 83 122 237 374 315 316 325 276 200 203 229 256 263 276 289 322 311 353 294 277 232 192 151 139 131 114 105 91 90 99 91 90 106 128 145 142 140 125
13 27 25 24 17 30 63 101 159 307 364 331 305 264 258 247 217 185 181 232 247 215 229 163 150 138 127 131 137 137 155 158 135 119 119 136 146 157 162 162 145 123 117
93 104 65 48 51 56 67 83 105 151 225 291 346 256 231 218 209 206 190 196 224 214 168 150 149 146 146 148 147 145 140 138 147 151 159 154 147 136 127 125 130 133 133
93 78 80 85 95 94 102 143 162 176 193 194 191 256 240 246 256 257 221 187 166 169 164 175 164 160 156 148 139 129 125 128 122 120 121 119 118 115 130 133 137 154 140
136 140 120 103 111 121 124 150 176 197 203 202 208 196 146 163 217 216 199 183 176 167 159 160 147 135 121 106 100 96 94 96 104 113 119 122 124 124 129 138 143 138 135
128 146 164 159 165 156 162 178 170 172 181 193 197 174 169 178 190 198 192 193 175 155 141 128 120 110 95 88 86 93 101 106 112 116 118 122 121 129 126 126 127 121 116
141 152 166 176 164 167 161 152 152 151 148 156 159 186 204 187 186 183 181 168 150 140 123 113 110 108 102 101 98 97 102 107 107 111 119 116 118 123 119 123 113 111 107
145 154 163 167 165 165 167 159 157 160 161 163 160 170 180 179 171 162 153 137 127 123 119 116 109 106 102 100 94 94 97 102 103 105 110 113 115 117 112 115 121 109 105
143 149 153 154 148 151 154 160 165 171 163 164 165 166 163 149 140 131 116 106 105 107 107 106 104 97 86 87 87 90 96 93 90 101 112 115 113 112 110 113 108 102 88
138 141 143 137 134 132 138 143 145 147 149 139 133 126 115 105 95 90 86 85 88 88 94 89 89 90 102 107 104 104 105 113 112 104 100 101 105 100 106 96 94 88 80
132 135 134 129 132 132 133 133 129 125 125 114 104 94 85 84 85 83 83 83 83 85 83 83 88 95 88 90 97 102 101 100 96 100 94 94 96 100 95 94 90 84 73

GFSGL_con_3kmhel_108.txt.gz
Helicity
104 176 161 86 76 104 89 84 113 89 52 39 57 115 148 169 189 226 302 451 386 317 357 396 288 123 403 437 283 190 197 147 100 143 154 117 104 43 101 117 111 153 83
95 138 145 91 87 98 79 82 103 72 43 35 63 47 59 126 142 231 213 289 247 305 322 456 315 198 206 290 101 168 142 104 124 13 75 71 76 43 52 135 181 100 140
102 173 143 117 97 81 66 91 83 66 31 36 47 51 41 74 118 163 190 240 282 308 315 352 305 317 121 223 171 201 124 107 55 60 54 63 93 91 83 37 94 181 198
135 193 179 123 84 70 63 88 59 66 30 34 32 57 53 60 72 107 145 205 226 299 310 315 382 250 143 205 153 206 144 86 91 94 72 56 60 86 124 158 207 242 262
224 188 146 103 82 62 64 69 49 45 36 27 25 34 32 42 66 91 132 109 114 116 162 179 167 31 60 180 138 124 101 93 94 86 75 54 53 90 152 147 179 334 315
179 182 140 101 89 87 76 65 59 39 29 39 28 24 26 14 55 95 116 97 100 87 59 78 37 27 85 118 88 102 146 48 31 74 74 69 75 156 175 205 256 284 326
187 173 85 74 82 94 87 71 58 39 35 39 37 40 48 52 95 109 128 137 158 131 103 112 111 109 133 181 166 209 204 182 179 119 97 111 142 234 299 317 352 333 416
265 188 131 92 84 91 83 69 56 47 42 42 46 47 39 46 98 114 122 131 188 197 198 180 177 148 201 284 296 293 277 299 259 257 263 276 287 349 318 308 349 467 606
385 337 312 276 212 124 99 75 53 44 34 33 34 53 63 62 59 86 113 64 39 94 104 104 127 131 175 343 370 426 455 434 410 508 559 608 641 628 445 408 445 504 525
458 289 247 268 251 231 194 127 55 33 70 108 161 192 211 159 179 58 80 85 65 80 168 224 219 164 169 340 368 461 518 442 410 430 485 556 588 673 732 640 504 520 503
306 164 93 183 215 191 175 184 141 159 272 346 347 321 300 269 192 153 74 120 193 281 280 279 253 277 408 534 568 613 650 650 614 637 598 572 593 614 590 548 571 462 429
148 90 49 58 36 56 84 103 162 254 335 351 371 384 376 344 329 258 211 226 303 355 356 364 328 333 351 413 439 407 470 489 483 490 526 568 553 539 499 502 491 457 376
88 113 115 114 130 146 140 180 216 268 317 359 363 365 353 344 344 405 407 431 507 558 546 561 619 562 538 540 428 525 597 552 460 525 509 476 418 372 324 263 229 213 208
93 125 171 203 230 266 278 289 301 313 321 338 324 305 278 286 256 241 304 395 530 522 528 442 458 454 479 443 487 474 372 310 300 279 245 201 169 149 154 135 129 126 141
26 41 77 103 151 203 250 242 250 289 238 230 236 204 214 255 219 210 220 224 238 263 303 357 374 382 404 375 362 338 308 249 225 188 167 159 161 162 171 157 155 140 160
36 39 40 60 93 124 156 244 332 277 285 278 289 230 200 200 216 236 237 264 251 210 274 309 316 288 276 254 226 189 163 157 145 137 132 136 145 146 145 139 132 139 151
16 26 29 38 47 64 94 123 178 297 344 329 300 271 255 205 209 198 211 241 247 215 235 221 220 194 160 153 149 146 153 158 154 157 168 167 158 156 148 146 146 146 149
69 88 71 69 72 73 89 100 103 121 160 222 298 262 238 205 189 185 182 176 197 206 185 159 154 149 145 156 167 167 173 163 151 143 150 151 144 136 139 144 146 145 141
54 48 37 49 60 75 80 89 99 119 142 146 150 190 191 215 240 237 204 180 175 172 155 154 154 162 173 172 173 169 157 156 151 151 153 153 155 152 156 152 155 155 126
111 94 69 74 84 99 103 115 123 138 145 156 175 175 135 140 181 192 192 189 190 191 191 197 198 189 183 172 162 147 146 146 144 145 151 152 150 143 142 135 136 137 145
116 129 131 125 134 138 142 153 156 161 166 171 181 187 199 174 193 203 208 218 215 211 206 196 187 178 166 161 155 150 149 147 148 144 136 132 129 132 130 131 134 138 143
147 154 162 165 158 170 173 167 165 162 160 166 175 195 205 197 202 209 218 223 217 207 186 177 172 165 155 145 134 126 123 123 121 119 123 126 127 130 126 133 132 127 126
163 166 169 168 159 161 166 160 158 158 161 163 163 172 179 186 190 188 183 179 170 167 157 145 136 129 121 123 121 117 116 123 123 120 122 124 123 128 130 132 127 118 129
162 166 167 168 167 161 160 162 166 178 170 172 177 179 177 173 175 178 163 151 143 138 134 131 133 129 117 116 114 117 119 118 114 119 122 125 125 121 119 114 110 113 107
152 151 155 155 155 152 154 164 163 165 165 163 164 159 155 147 145 141 131 126 122 117 123 120 112 111 120 127 121 124 123 125 128 115 105 103 112 105 111 107 119 108 107
142 146 147 144 145 145 148 150 153 149 149 145 140 135 126 122 115 109 105 105 101 102 101 98 98 99 86 92 106 112 106 106 104 107 98 95 101 105 106 115 111 111 106